GFSFLT1_sfc_30mbdewp_000.txt.gz
Dewpoint
56 57 55 55 55 55 55 55 55 57 57 57 58 57 56 54 51 53 56 55 57 55 54 54 54 53 54 54 53 54 54 53 53
56 55 58 57 57 57 56 56 56 57 56 56 57 56 54 49 51 53 54 55 53 53 53 53 53 52 52 52 51 52 52 51 52
55 57 60 58 57 55 54 53 55 56 56 55 56 55 52 50 49 52 53 54 52 53 52 52 52 52 51 51 49 50 50 50 49
61 62 61 59 55 53 50 49 51 55 55 54 56 55 52 49 49 47 48 53 51 52 52 50 51 51 52 51 48 49 49 49 48
61 59 59 59 56 51 47 50 52 51 51 50 53 54 50 48 50 50 51 53 51 50 50 48 48 49 49 48 47 47 47 48 48
58 59 60 58 56 51 48 48 48 49 47 53 54 53 39 45 48 49 57 53 51 49 48 46 46 46 46 47 47 45 47 47 47
55 57 59 60 59 56 53 54 53 51 39 48 54 43 38 40 47 49 55 55 52 51 48 46 46 46 47 47 47 48 46 47 47
55 54 52 53 58 52 53 51 43 41 39 38 41 40 37 32 42 47 54 57 53 51 49 47 46 47 47 47 47 48 48 49 47
52 52 50 51 51 48 48 47 47 42 38 35 34 35 36 30 32 40 52 56 55 52 50 46 46 47 48 48 48 48 49 48 48
51 51 51 51 51 49 48 48 48 48 40 37 34 34 34 35 34 31 44 51 54 53 50 46 46 47 47 48 48 49 49 50 50
50 51 52 52 53 52 51 49 49 49 42 38 37 35 34 35 35 35 35 44 48 48 48 47 45 46 46 47 47 48 49 49 50
51 51 52 53 53 53 52 52 52 50 47 43 38 37 35 33 34 34 34 35 44 47 45 45 46 46 46 46 46 47 47 49 49
55 51 52 53 53 52 52 52 51 49 48 47 44 41 39 37 35 34 34 34 35 40 46 46 45 45 46 46 46 46 46 49 49
56 55 52 52 53 52 52 52 51 50 49 48 47 47 46 45 41 38 36 36 37 37 38 44 47 47 46 45 45 46 46 49 49
56 56 56 53 53 53 53 53 52 52 50 48 47 46 47 47 46 42 39 38 39 39 40 40 41 46 48 47 47 46 47 47 48
57 57 57 56 54 53 53 53 52 52 52 51 50 50 50 49 49 47 44 41 41 41 40 40 39 39 44 44 47 48 48 49 49
58 58 57 57 56 55 54 54 53 52 52 50 50 48 46 47 47 46 45 43 40 40 41 41 39 40 41 41 43 45 48 50 50
59 59 59 58 58 57 56 55 54 53 53 52 50 47 44 44 43 43 42 41 43 44 44 47 44 43 43 44 45 45 47 48 49
60 60 59 59 58 58 58 57 56 55 54 53 51 52 49 46 44 46 47 46 45 44 46 47 46 46 47 47 46 45 46 48 50
59 60 60 59 59 58 58 58 57 56 55 54 52 49 48 48 47 47 47 48 47 47 47 47 47 48 48 48 47 46 46 48 49

GFSFLT1_sfc_30mbdewp_003.txt.gz
Dewpoint
56 55 54 55 55 55 54 55 56 58 57 57 58 56 56 54 51 53 56 56 55 54 55 54 53 53 53 53 53 53 53 53 53
56 57 58 58 58 57 56 56 56 57 56 57 57 56 54 52 50 52 53 54 54 54 53 53 53 52 52 51 51 52 51 51 51
56 58 60 58 58 56 54 54 56 56 56 55 56 55 53 50 48 51 54 53 53 53 52 52 52 53 52 50 50 50 50 49 49
60 61 60 59 56 54 51 50 51 55 56 56 56 55 53 51 47 46 51 54 52 52 50 50 51 52 52 50 48 49 49 49 49
61 60 60 59 56 53 48 49 52 55 54 53 53 55 52 48 49 48 54 54 51 51 50 48 48 49 49 49 48 48 47 47 48
59 59 58 57 56 52 49 49 50 51 51 52 52 57 45 43 47 48 57 54 52 49 48 46 47 47 47 48 48 48 47 47 47
54 58 60 59 58 56 52 51 52 51 42 47 55 47 41 37 44 48 56 57 54 53 50 48 47 47 48 49 49 49 49 48 48
54 54 55 54 59 53 53 52 46 42 41 38 45 41 39 34 36 46 54 56 56 53 53 50 49 48 49 49 49 49 49 49 50
51 52 51 50 51 50 49 47 45 42 40 37 35 36 36 35 30 37 53 55 55 55 53 52 48 48 49 50 50 50 50 51 51
49 50 50 49 49 48 47 46 46 47 43 38 35 33 33 35 36 34 48 51 52 52 51 51 50 48 49 49 50 50 51 51 51
49 48 50 50 51 50 49 47 47 48 48 41 38 35 35 35 35 36 39 43 46 45 45 46 47 48 48 49 49 49 50 50 51
52 50 50 51 51 51 51 50 49 48 48 45 40 38 37 36 36 36 36 40 45 45 44 44 45 47 48 48 48 48 49 50 51
54 52 51 51 52 52 51 51 50 50 49 48 47 44 40 38 37 36 36 37 37 45 48 46 45 46 47 47 48 48 49 52 53
55 55 54 51 53 53 52 51 51 51 50 49 48 48 47 46 43 41 39 39 40 40 41 49 49 50 47 47 47 48 48 51 52
56 56 56 54 53 54 54 53 52 52 51 49 47 48 48 48 48 47 46 44 43 43 42 43 47 49 48 48 48 48 48 50 52
57 57 57 57 55 53 54 54 54 53 53 51 51 51 50 49 50 50 50 48 44 42 42 43 44 44 49 51 49 49 50 50 50
58 58 58 58 57 56 55 54 54 54 54 51 51 48 49 49 50 50 50 49 48 46 44 43 43 43 44 46 50 49 50 52 52
59 59 59 59 59 58 58 57 55 54 54 53 51 47 46 45 47 47 45 45 44 44 43 45 47 47 45 46 47 47 48 50 53
59 59 60 60 60 59 59 58 57 56 55 55 54 52 49 47 45 47 47 45 44 47 47 47 48 49 48 48 49 50 50 50 50
59 59 60 60 60 60 60 59 59 58 57 56 55 53 53 52 50 48 47 49 48 48 47 48 49 49 49 50 51 50 50 50 51

GFSFLT1_sfc_30mbdewp_006.txt.gz
Dewpoint
56 54 54 55 55 56 54 55 56 56 57 57 57 56 54 55 54 56 57 54 55 55 54 54 53 53 53 51 53 52 52 52 51
56 57 57 57 57 56 56 56 56 57 56 58 57 55 54 53 52 54 54 54 54 53 53 53 53 52 52 50 52 51 50 50 50
57 58 60 58 58 56 55 55 56 57 56 56 56 54 53 51 50 54 54 54 54 53 52 52 53 53 52 49 50 50 50 49 49
60 60 60 60 57 55 53 51 53 56 56 56 56 54 53 51 50 51 54 54 52 53 50 50 52 52 52 49 48 48 49 49 49
61 61 61 59 57 54 50 49 50 54 56 56 54 56 52 47 49 52 55 54 52 51 49 48 49 49 49 49 48 48 47 47 48
58 59 59 58 57 54 49 49 52 53 54 54 54 55 53 46 47 53 56 54 52 50 49 47 47 48 47 48 48 49 48 48 48
57 59 59 58 57 55 52 50 50 51 47 47 53 54 49 45 45 54 57 54 53 52 50 49 47 47 48 49 49 50 50 50 50
56 58 58 58 59 57 55 53 53 50 46 46 51 50 46 41 37 51 56 54 54 54 54 53 50 49 49 50 50 50 50 50 50
54 54 56 55 55 56 54 51 50 46 42 41 39 42 41 39 35 43 55 55 52 54 55 54 53 50 50 50 51 51 51 51 52
51 52 52 52 51 52 50 49 47 46 42 40 38 36 35 35 37 33 51 55 53 51 52 52 53 53 50 50 51 51 51 52 52
51 50 51 51 51 50 50 48 47 47 48 45 40 36 35 35 35 37 38 48 51 47 47 48 49 50 51 50 50 50 51 51 51
53 51 50 51 52 52 52 50 49 48 48 48 46 40 37 35 35 35 37 43 49 48 45 44 45 46 48 49 49 50 52 53 53
54 54 51 52 52 52 52 52 51 50 49 49 49 45 42 40 38 37 36 37 41 48 50 49 46 46 47 48 48 49 52 53 54
55 55 54 52 52 53 53 52 52 51 51 50 49 49 48 45 41 39 38 38 39 39 44 49 50 50 48 47 48 49 51 53 54
55 55 56 54 52 53 53 52 52 52 51 51 50 49 49 49 48 48 45 44 42 41 40 42 50 51 51 48 47 48 49 52 53
56 55 56 56 54 53 53 53 53 52 53 52 51 51 51 50 49 49 49 49 48 45 43 43 42 43 51 51 49 48 49 50 52
57 56 56 56 56 56 53 53 54 54 54 52 51 50 50 51 51 50 50 50 50 49 46 43 44 44 45 47 51 53 49 50 51
58 58 57 57 57 57 57 55 54 53 54 54 52 49 47 47 48 49 50 50 50 50 48 46 44 43 44 45 46 50 52 50 53
58 59 59 58 58 58 58 58 56 55 54 55 54 52 50 47 46 47 46 46 45 45 45 44 44 45 47 47 47 47 49 50 51
58 59 59 59 59 59 59 59 58 57 56 55 54 54 53 52 50 49 49 48 46 46 46 47 47 47 50 49 48 49 51 53 53

GFSFLT1_sfc_30mbdewp_009.txt.gz
Dewpoint
56 54 54 56 56 55 55 56 55 55 56 56 57 55 54 56 53 57 57 54 55 55 55 54 54 53 51 53 52 52 52 51 52
57 57 56 57 57 56 56 55 56 57 57 56 57 55 54 53 51 56 54 55 54 53 54 54 52 52 50 52 52 51 50 49 50
57 57 58 58 59 58 56 55 56 57 56 57 58 55 53 52 50 54 54 55 54 53 52 53 53 52 51 50 51 50 50 49 49
58 59 60 59 59 56 55 53 54 57 57 56 57 55 54 52 50 54 54 55 53 53 51 52 52 53 52 49 48 49 49 49 49
61 60 61 61 58 57 54 51 51 54 56 57 56 57 54 51 46 52 53 54 52 52 50 50 50 51 50 50 49 48 48 48 48
60 60 61 60 59 56 53 49 51 54 57 57 56 55 55 51 45 51 56 55 53 51 51 48 48 48 48 48 49 49 49 49 49
58 59 61 60 58 57 54 50 51 54 52 53 56 54 53 49 46 48 58 55 52 52 50 49 47 47 48 49 49 50 50 51 50
57 58 59 59 58 57 56 53 52 52 50 46 46 51 51 46 44 46 59 56 54 52 53 53 51 50 49 50 50 51 51 51 51
56 58 58 57 57 57 56 54 53 52 48 46 46 48 49 44 43 39 59 58 55 53 53 55 55 54 52 51 51 51 52 52 52
54 55 55 56 55 56 55 54 52 50 47 43 41 42 43 43 40 36 50 58 57 53 52 53 54 55 55 53 51 52 52 53 53
52 51 52 53 54 53 53 52 51 48 47 43 41 39 38 36 35 36 37 54 56 53 50 50 51 52 53 54 53 53 52 53 53
53 51 51 51 52 51 50 50 49 48 47 48 47 43 39 37 35 35 36 39 52 54 47 46 48 49 50 51 51 54 55 56 56
53 53 52 51 52 52 51 51 50 50 49 48 49 48 45 40 37 36 36 36 38 48 53 51 50 49 48 49 49 51 54 55 56
53 54 54 52 51 52 52 52 52 51 51 50 50 50 49 48 44 41 38 37 37 38 43 52 52 51 50 46 47 49 52 54 55
54 54 54 54 52 52 53 52 52 52 51 51 51 51 50 50 49 47 43 40 39 39 38 39 48 52 51 49 46 46 50 53 54
55 55 55 56 54 53 52 52 52 52 52 51 51 51 51 50 50 49 49 48 46 43 41 40 40 42 52 51 50 48 48 51 53
56 55 55 56 55 55 53 52 52 53 53 51 51 50 51 51 52 51 50 49 49 49 48 46 44 43 43 46 52 52 49 48 50
58 57 56 56 56 55 56 55 53 52 53 53 52 50 48 48 49 51 51 51 50 50 50 49 47 45 45 46 47 50 51 50 49
59 58 58 57 57 57 56 57 56 54 53 54 54 53 51 48 47 48 48 50 50 50 51 50 49 47 45 45 46 46 49 50 49
57 58 59 58 58 58 58 58 57 58 56 55 54 54 54 53 51 49 49 49 47 48 48 47 46 45 45 45 46 48 48 49 51

GFSFLT1_sfc_30mbdewp_012.txt.gz
Dewpoint
56 54 55 56 56 56 56 57 55 56 55 55 57 54 55 56 52 57 58 54 55 55 54 54 54 52 53 53 52 52 52 52 52
57 56 55 56 56 56 55 56 56 55 56 57 56 55 55 53 50 56 55 55 56 55 55 54 53 52 51 53 51 51 50 50 50
57 57 57 58 59 58 57 55 56 57 57 57 58 56 55 52 50 56 54 56 54 53 53 54 53 52 50 51 51 50 50 49 49
58 57 60 59 59 58 57 55 55 56 57 56 57 58 56 53 49 54 54 57 54 54 52 53 53 53 51 49 50 50 50 50 49
59 60 60 60 60 58 57 55 53 54 57 57 57 59 58 54 49 49 53 57 53 54 52 51 52 52 52 51 49 48 48 49 49
60 61 60 61 61 59 57 55 51 52 55 58 59 58 56 53 49 45 54 56 53 53 53 50 50 50 50 50 50 50 50 49 49
58 60 61 61 61 60 58 56 52 54 55 56 58 58 55 53 50 46 50 57 56 55 53 52 50 49 49 50 49 50 50 51 51
56 57 59 61 61 59 58 56 54 52 53 51 50 51 53 52 49 46 50 53 57 56 53 52 51 49 49 50 50 51 51 51 52
56 56 57 59 58 58 57 56 54 52 51 50 48 45 47 49 48 44 47 53 58 55 54 54 54 53 52 51 51 52 52 52 52
55 56 57 57 57 57 56 55 54 53 51 50 47 45 46 47 47 44 43 48 58 55 54 54 54 55 56 55 53 53 53 53 53
54 54 55 56 56 55 55 54 54 53 51 49 46 43 42 43 43 42 42 44 55 57 50 51 53 54 54 55 56 57 55 54 54
54 53 52 53 54 54 54 53 52 51 50 48 47 45 42 40 39 37 36 37 46 57 51 49 51 53 52 53 54 57 58 58 57
54 53 53 52 51 52 51 51 50 49 49 48 48 47 48 46 43 39 37 36 36 40 53 54 52 52 51 49 51 54 56 57 58
53 53 53 53 52 51 51 51 51 50 51 50 50 50 49 49 48 44 41 38 38 37 39 47 53 52 52 48 46 50 54 55 56
54 54 53 54 53 52 52 51 52 51 51 51 51 51 51 51 50 50 48 45 41 39 38 39 43 51 51 51 48 49 51 52 54
54 54 54 54 54 53 53 52 51 51 52 51 51 51 52 51 51 51 50 50 48 44 42 40 40 39 47 52 52 52 52 52 53
56 55 55 55 55 55 54 53 52 52 52 51 51 50 51 51 52 52 51 51 50 49 47 44 42 42 42 42 50 53 53 51 52
58 58 56 56 55 55 55 55 53 53 54 53 52 51 49 49 49 51 52 52 52 51 50 49 48 47 46 46 46 49 52 52 52
57 58 58 58 57 56 56 56 56 55 54 55 54 53 53 51 50 51 49 50 51 51 51 51 51 50 49 48 47 48 50 51 53
50 52 54 57 58 58 57 57 57 57 56 55 55 55 54 54 53 51 51 51 50 50 50 50 50 51 51 50 48 49 50 51 52

GFSFLT1_sfc_30mbdewp_015.txt.gz
Dewpoint
57 56 55 56 56 56 58 57 56 56 56 56 58 55 54 56 51 57 58 57 55 55 54 54 54 53 54 53 53 53 51 52 52
57 55 55 57 56 56 55 57 57 56 56 55 57 56 55 53 50 56 57 54 56 55 55 54 54 52 52 53 52 51 51 51 50
56 58 57 57 57 57 57 55 56 57 57 57 58 57 57 53 49 53 56 55 56 55 55 55 53 53 51 53 52 51 50 50 49
56 58 58 59 59 60 59 57 56 55 57 57 57 59 59 55 51 51 55 55 57 54 54 54 55 54 53 51 52 51 51 50 50
58 60 59 59 60 60 59 58 56 55 56 57 57 58 60 58 52 49 53 56 58 55 55 53 53 54 54 52 50 50 51 51 50
59 60 61 60 60 61 60 59 57 55 55 57 59 59 58 57 53 48 49 56 58 56 54 54 52 53 53 53 52 51 50 50 50
58 59 61 61 60 61 60 59 58 57 54 54 57 59 58 56 53 51 50 52 56 56 55 55 53 52 52 53 52 51 52 51 52
57 57 57 60 60 61 61 59 58 55 53 53 53 53 54 55 53 51 51 52 54 57 57 56 55 53 51 51 52 51 51 52 52
56 56 56 56 59 59 58 57 56 54 52 51 51 49 48 48 50 50 51 51 51 53 56 57 56 55 53 52 51 51 52 52 53
56 56 56 56 57 57 57 56 56 54 53 52 51 50 48 46 46 47 47 50 50 50 53 57 56 56 56 55 54 54 53 53 53
56 55 55 56 56 57 56 56 55 54 53 52 51 49 47 45 45 47 47 49 52 50 51 51 53 54 56 56 58 59 58 56 56
56 55 54 54 55 56 55 55 54 53 53 52 51 49 47 45 43 42 41 41 45 49 50 49 52 55 53 53 57 58 59 60 59
55 55 54 53 53 53 53 53 52 52 52 51 50 49 48 47 45 43 42 40 39 40 46 50 51 55 54 48 51 55 57 58 58
54 54 54 54 52 52 52 51 51 50 50 50 50 49 49 49 48 48 47 45 43 42 41 44 49 52 52 50 48 51 53 54 57
53 53 53 53 53 53 52 52 52 51 51 50 51 51 51 51 51 51 50 49 46 44 43 43 43 47 49 51 50 52 52 53 53
54 53 54 54 53 53 53 52 52 52 52 51 51 52 52 52 52 52 52 51 51 50 46 44 44 43 47 49 51 53 54 54 54
57 56 55 55 54 54 54 54 53 53 53 52 52 51 51 52 52 52 52 52 52 51 51 49 45 45 45 44 46 51 52 52 55
54 56 57 57 57 55 56 55 54 54 55 53 52 51 50 50 51 51 52 52 52 52 51 51 49 47 46 46 46 48 49 50 52
46 47 48 51 55 57 57 57 56 55 54 55 54 54 54 52 51 52 52 51 51 52 52 51 51 50 49 49 49 49 49 50 52
43 43 44 44 44 45 47 54 57 57 57 56 56 56 55 54 53 50 52 53 52 51 51 51 51 51 51 51 50 51 52 52 53

GFSFLT1_sfc_30mbdewp_018.txt.gz
Dewpoint
58 57 56 56 57 56 57 58 57 56 56 57 58 58 54 57 52 54 56 58 58 55 55 56 56 54 54 54 53 54 53 52 53
58 57 56 56 57 56 56 56 58 57 57 57 56 57 55 55 51 51 57 59 57 56 55 55 54 53 53 54 53 52 52 52 52
57 58 58 57 57 57 57 56 55 57 57 57 57 58 58 55 51 50 56 57 57 57 56 56 55 54 53 53 53 52 51 51 51
58 57 58 58 58 59 60 59 58 56 56 57 57 58 59 58 54 50 52 57 58 58 55 55 55 55 54 52 53 53 52 51 51
59 59 60 59 59 60 60 60 59 58 56 56 57 59 59 60 57 52 49 56 58 58 57 55 55 55 55 54 52 52 52 52 52
59 59 61 61 60 59 60 60 60 60 59 57 57 59 59 58 57 55 52 53 58 58 58 56 56 54 54 55 55 53 51 51 52
58 58 59 60 61 61 60 60 60 60 58 55 54 55 57 58 57 55 55 54 53 57 57 57 56 56 54 54 55 55 53 52 52
58 57 57 57 58 59 60 60 60 58 57 54 53 53 52 54 55 55 56 55 53 54 55 56 58 57 57 54 53 54 54 53 53
57 56 56 56 56 56 57 58 58 57 56 54 52 51 50 50 49 50 53 54 54 51 54 55 56 58 58 57 55 54 55 53 53
57 56 56 56 56 56 56 56 56 56 55 54 53 52 51 49 48 47 48 50 50 51 50 51 53 55 58 59 58 58 57 55 56
57 57 56 55 55 56 56 56 56 55 55 54 53 52 51 50 48 46 45 48 50 51 52 52 49 50 53 58 59 60 59 58 58
57 56 56 55 55 55 56 55 56 55 54 54 53 52 51 50 49 46 46 46 49 50 52 51 51 51 50 51 56 58 59 59 59
56 56 56 56 54 54 54 54 53 53 53 52 52 52 51 50 49 48 47 46 44 44 48 50 51 52 51 50 51 55 56 57 58
56 55 55 55 54 53 52 52 52 51 51 51 51 51 50 50 49 49 48 47 47 46 45 48 50 52 53 52 51 53 54 54 55
54 54 54 54 53 53 53 52 53 52 52 52 52 51 51 51 51 51 50 50 49 48 47 47 47 49 51 52 53 55 56 55 54
55 54 54 54 54 54 54 54 53 53 53 51 52 52 52 52 52 52 52 52 52 51 49 48 48 47 49 51 51 53 55 56 56
51 52 53 55 55 56 55 55 54 54 54 53 53 52 52 53 53 52 52 52 52 52 52 51 49 48 48 47 49 52 53 54 55
43 44 45 46 50 51 54 55 56 54 55 55 53 51 50 52 53 52 52 52 52 52 52 52 51 50 48 48 49 50 51 52 54
42 43 43 43 44 43 44 44 49 52 52 55 55 55 54 50 49 52 54 52 52 52 52 52 52 51 51 50 49 49 50 51 54
42 42 42 42 43 43 43 43 44 45 46 48 51 51 51 52 51 48 49 51 54 54 53 52 52 52 52 51 50 51 51 52 54

GFSFLT1_sfc_30mbdewp_021.txt.gz
Dewpoint
57 57 57 56 57 57 56 58 58 57 56 57 58 59 57 56 55 53 57 57 58 59 56 56 57 57 56 55 53 54 55 53 54
56 58 56 56 57 57 57 56 57 58 58 58 58 58 58 55 54 52 56 58 61 58 57 56 55 55 54 55 54 54 53 53 53
57 57 58 58 57 58 58 58 57 56 57 57 57 56 58 57 56 53 52 58 61 58 59 56 56 55 55 53 55 53 53 52 52
60 58 58 59 58 59 60 60 60 59 58 57 57 58 58 57 58 56 51 53 59 60 59 57 56 57 55 55 53 55 54 53 52
61 60 60 59 59 59 60 61 61 60 59 58 58 58 59 56 57 58 55 54 55 59 59 59 57 56 56 56 55 54 54 54 53
59 59 59 61 61 60 59 60 60 61 60 60 59 58 53 55 57 57 57 57 55 55 59 59 59 57 57 56 56 56 54 53 54
59 58 58 60 60 61 61 61 61 62 60 59 57 56 54 52 53 55 58 59 57 55 55 58 58 58 58 57 55 56 56 55 53
59 59 58 58 57 57 57 58 58 58 58 58 57 56 54 52 51 51 56 57 57 56 54 55 56 57 58 58 57 56 55 56 56
58 58 58 58 57 57 57 56 56 57 57 57 56 56 54 52 51 50 52 53 53 53 54 53 54 56 57 58 60 60 58 58 57
58 58 57 57 57 57 56 56 55 55 55 55 56 55 54 53 52 51 50 52 52 50 50 52 51 51 54 57 60 61 61 59 58
58 57 57 57 57 56 56 56 56 56 55 55 55 55 54 54 53 52 51 51 53 54 53 51 51 52 52 53 57 59 61 61 60
58 57 57 56 56 56 56 56 56 55 55 55 54 54 54 53 53 52 51 51 51 52 54 55 54 53 53 53 55 55 57 60 61
57 57 56 56 56 55 55 54 54 54 54 53 53 53 53 53 53 52 52 51 50 50 51 54 55 55 55 54 54 56 56 57 58
56 55 55 55 55 54 54 53 53 53 54 53 53 53 53 53 53 52 52 51 51 51 51 51 52 54 55 55 55 56 57 56 57
55 55 55 55 55 55 55 55 55 54 54 54 54 54 54 54 53 53 53 52 52 51 51 51 51 51 52 53 55 56 58 58 58
48 48 48 49 51 51 52 53 54 53 54 54 53 54 54 54 54 54 54 53 53 53 53 52 51 51 52 52 53 55 56 58 59
41 42 42 42 43 42 42 45 46 48 50 52 52 50 49 50 54 54 54 54 54 54 53 53 53 52 52 51 52 53 54 56 57
40 41 41 41 41 40 41 41 42 41 42 45 47 46 44 49 49 50 52 53 54 54 54 54 53 53 53 53 52 52 52 53 55
38 39 40 39 40 38 38 38 40 41 40 41 41 44 44 41 40 40 46 47 49 50 50 52 53 53 54 54 53 52 52 53 54
36 37 37 36 36 35 37 37 38 38 39 40 41 42 43 43 43 41 40 43 43 46 47 49 50 52 53 54 54 54 53 54 55

GFSFLT1_sfc_30mbdewp_024.txt.gz
Dewpoint
56 57 57 56 57 57 57 56 59 58 58 55 58 60 59 56 53 52 52 57 55 59 59 57 57 58 58 56 56 54 54 55 53
56 58 57 56 57 57 57 57 56 57 58 58 58 59 58 57 54 50 51 54 57 60 59 57 57 56 55 55 55 54 54 54 53
57 57 58 59 58 58 58 58 58 57 57 56 55 56 57 55 55 54 51 52 58 61 59 60 57 56 56 55 55 55 54 54 53
60 60 59 59 59 58 60 61 61 60 60 59 58 58 58 55 54 53 53 52 55 59 60 59 60 58 57 56 56 55 55 54 54
60 61 60 60 59 59 59 59 61 61 60 60 60 59 59 54 52 52 53 55 55 55 58 60 59 60 57 57 57 56 55 56 55
57 57 58 60 60 60 59 60 60 62 61 60 61 60 54 49 48 49 52 56 58 57 56 57 59 58 59 58 57 57 57 55 55
58 58 59 59 60 60 60 60 60 61 56 55 59 57 53 50 48 46 50 54 57 57 56 56 57 58 58 59 59 57 57 57 56
56 56 57 57 57 56 55 55 55 54 55 54 54 54 54 53 51 50 50 51 54 54 56 56 56 57 58 58 59 60 59 58 58
55 55 55 56 56 55 55 55 54 55 55 54 54 54 54 54 53 52 52 52 55 54 52 53 55 55 55 57 58 60 61 61 59
55 55 55 55 55 55 55 55 55 55 55 55 55 55 55 55 54 54 54 54 54 56 55 53 52 52 54 54 57 59 61 61 62
57 56 56 56 55 56 55 55 55 55 55 55 55 55 55 55 55 54 54 55 55 55 57 57 56 55 53 53 56 57 59 60 61
58 57 57 56 56 55 55 55 56 55 55 55 55 55 55 54 54 55 54 55 55 55 55 58 58 58 57 56 56 57 57 58 60
57 56 55 55 56 56 56 56 56 56 55 55 55 55 55 54 54 54 54 54 54 54 56 56 56 58 59 59 58 59 58 58 58
55 56 57 57 57 57 56 55 54 54 53 53 53 53 54 54 54 54 54 54 54 54 54 55 56 55 55 57 59 59 60 59 59
55 51 48 49 49 48 48 48 49 49 49 48 48 49 50 50 51 52 52 53 54 54 54 54 54 54 55 55 55 57 58 60 60
41 41 40 39 39 38 38 38 37 37 39 37 39 39 42 48 44 48 52 49 49 50 52 53 54 54 55 55 55 55 56 57 59
37 38 37 38 37 37 37 37 37 36 37 37 36 33 36 36 40 38 38 42 42 46 51 52 52 53 54 55 55 55 55 55 56
37 37 36 36 36 35 35 34 36 35 35 35 35 36 33 37 35 35 35 37 40 40 42 44 45 47 49 53 53 54 55 55 55
33 33 32 31 30 29 28 28 30 29 28 30 31 34 35 34 34 32 34 34 37 36 37 38 41 41 43 48 51 52 53 55 55
26 26 26 24 22 23 22 25 26 23 22 26 29 32 34 33 30 32 27 29 29 31 33 36 38 38 41 43 46 49 51 51 52

GFSFLT1_sfc_30mbdewp_027.txt.gz
Dewpoint
57 57 58 56 57 57 57 56 58 59 59 58 57 58 60 59 55 52 51 52 55 56 58 60 58 58 58 58 57 56 54 54 55
57 59 57 57 57 58 58 58 57 56 57 58 58 58 59 56 53 53 51 51 53 57 59 59 57 57 56 56 56 56 55 55 55
58 57 58 59 59 58 59 59 59 59 58 58 57 57 56 54 52 54 54 53 52 57 59 60 60 59 57 57 56 55 56 55 55
59 60 60 59 59 59 59 60 61 61 60 60 60 59 59 56 53 53 53 54 53 54 57 59 59 60 60 57 57 57 56 56 55
60 60 59 60 60 59 59 59 59 61 62 61 61 61 60 56 53 52 52 54 54 54 56 57 59 59 59 61 58 57 57 56 56
57 57 57 59 59 59 59 59 60 61 62 61 61 61 57 54 50 48 49 54 54 56 57 57 57 58 59 60 61 58 57 57 57
55 57 58 59 60 60 60 59 60 61 57 56 60 59 56 53 52 50 49 51 51 54 56 57 56 57 58 60 60 60 60 58 58
54 55 55 57 58 58 56 57 58 55 54 54 53 53 53 53 53 53 52 51 51 53 54 55 56 57 57 57 58 60 61 62 60
53 53 54 55 55 55 56 55 55 55 55 54 54 54 54 54 54 54 54 55 54 55 57 57 55 54 56 56 57 60 61 61 62
53 53 54 54 55 55 55 56 55 55 55 55 55 55 55 55 56 56 56 57 56 56 57 58 59 57 55 55 58 59 60 61 62
57 56 56 56 56 56 55 55 55 56 56 55 55 54 55 55 55 55 55 56 58 58 57 58 60 60 59 58 58 58 59 59 61
58 57 57 56 56 55 56 56 56 56 56 56 55 55 54 54 54 55 55 55 57 58 59 58 58 59 61 61 60 60 59 59 59
57 56 56 56 57 57 57 56 54 54 53 52 51 51 51 52 52 53 53 54 54 55 59 59 58 58 58 58 60 61 61 61 60
57 57 54 51 52 50 48 46 45 45 44 44 44 45 46 48 48 48 49 51 53 54 54 55 57 58 57 57 57 57 59 60 61
46 44 41 40 40 38 38 37 38 37 37 35 36 38 40 41 42 47 49 48 51 49 48 50 53 55 57 57 57 57 57 58 60
38 38 37 37 37 37 37 37 38 37 37 37 38 37 37 38 39 37 36 37 38 40 39 43 48 50 53 55 56 56 57 57 57
36 37 36 36 36 35 34 33 34 33 33 32 32 31 33 35 34 31 35 34 37 39 38 40 41 41 40 45 52 53 54 52 54
33 32 31 31 30 29 28 27 30 28 28 27 28 27 25 31 32 32 32 30 30 32 32 31 34 37 38 41 43 47 47 48 49
26 26 25 23 22 22 23 21 26 25 22 23 23 28 29 30 29 26 26 27 25 25 29 29 30 33 38 39 41 44 45 42 45
22 20 20 18 18 18 20 20 24 24 21 23 24 26 30 30 23 20 20 24 25 26 30 31 34 30 30 37 36 38 38 38 41

GFSFLT1_sfc_30mbdewp_030.txt.gz
Dewpoint
57 58 58 57 57 58 57 56 57 58 59 59 58 58 59 60 58 56 54 53 52 55 57 58 60 58 58 59 58 57 57 55 54
57 55 58 57 58 58 58 58 58 58 56 56 57 57 58 57 55 53 53 52 51 54 57 59 59 58 58 57 57 56 56 56 55
59 56 58 59 60 58 59 60 60 60 59 59 59 58 59 57 55 54 54 56 53 53 56 59 60 59 61 59 57 57 56 57 56
59 60 60 59 59 59 59 59 60 61 62 61 61 61 60 59 57 55 54 54 55 55 55 56 59 60 59 61 60 58 57 57 57
60 60 61 60 60 59 59 59 59 59 61 62 63 63 62 60 58 56 54 54 54 55 55 56 57 59 59 60 61 61 59 58 57
59 59 59 60 59 59 59 59 59 61 62 61 61 62 61 59 56 54 54 56 53 53 55 56 57 57 58 59 61 61 62 59 59
57 58 57 58 59 60 60 60 60 61 60 58 58 61 60 58 56 54 51 52 50 51 54 56 57 57 57 58 59 59 61 61 61
55 56 57 58 59 59 59 59 60 59 58 57 55 58 59 56 54 54 54 56 54 53 54 56 56 57 57 57 57 58 61 62 62
54 54 55 56 56 57 57 56 56 56 56 55 55 55 54 55 55 55 56 57 57 56 56 57 58 59 59 57 58 59 60 61 62
55 55 55 56 56 56 56 57 56 56 56 56 56 56 56 55 56 56 56 57 59 59 58 58 59 59 60 61 60 60 60 61 61
58 58 58 58 57 57 56 56 56 56 57 57 56 55 55 55 55 55 55 56 58 60 59 59 59 60 60 60 61 62 61 60 61
58 58 58 58 58 57 57 57 57 56 55 53 53 53 52 51 51 52 53 55 55 57 59 59 60 59 59 59 59 60 61 62 62
56 57 51 52 55 52 46 44 43 43 42 41 44 46 44 44 48 49 49 50 51 54 56 57 58 58 56 57 56 57 59 60 60
48 45 40 42 42 41 39 39 40 39 39 38 37 38 39 40 41 42 43 40 37 39 42 46 51 56 57 55 55 57 58 58 59
41 40 39 40 40 39 37 37 38 38 38 35 36 37 38 38 39 37 31 31 37 38 37 39 42 45 48 46 50 52 54 56 57
38 39 37 37 37 35 33 33 32 32 33 32 30 29 33 31 32 28 28 36 32 36 32 35 34 33 37 40 40 44 45 47 50
33 32 33 30 31 30 27 27 30 31 30 28 25 26 27 30 27 29 34 30 29 25 28 26 27 29 33 34 38 41 44 45 47
29 27 26 25 25 24 24 24 26 28 26 24 24 26 26 26 29 30 31 22 19 26 23 22 26 28 29 35 33 33 43 41 43
22 23 22 21 22 21 22 21 23 27 24 24 25 26 27 26 28 29 21 21 21 20 25 23 28 31 29 29 28 35 34 32 36
20 20 19 18 20 19 20 19 21 27 25 24 24 24 28 29 23 19 18 21 23 25 26 28 25 24 26 25 21 30 31 31 32

GFSFLT1_sfc_30mbdewp_033.txt.gz
Dewpoint
59 59 58 57 57 58 57 56 57 57 58 58 59 59 58 60 58 56 55 55 54 53 57 58 58 59 58 59 60 59 57 57 56
58 57 58 58 58 58 58 58 59 59 58 57 57 56 59 59 56 55 54 54 57 53 54 58 59 59 59 58 57 57 57 57 56
58 58 59 59 60 59 58 59 60 62 61 60 60 60 60 58 56 55 54 55 56 57 54 55 59 59 59 59 59 59 57 57 57
60 59 60 60 59 59 59 59 59 60 61 62 63 62 62 61 59 57 56 55 56 56 57 56 56 58 59 60 59 62 60 59 58
60 61 61 60 60 60 59 59 60 59 60 61 63 64 64 62 60 59 57 57 57 56 55 56 57 57 57 59 60 60 62 61 59
59 60 60 60 60 60 59 60 60 61 61 61 61 61 61 61 60 58 58 58 58 57 56 57 56 57 57 57 58 59 60 60 62
57 58 60 59 60 60 60 60 61 61 61 59 59 58 59 60 59 58 58 58 57 55 56 56 57 56 58 58 58 58 58 59 61
57 58 58 57 58 58 59 59 59 59 59 58 58 57 59 59 58 58 57 58 57 57 59 58 58 58 58 59 59 59 59 59 61
54 55 56 57 57 57 57 57 57 57 57 57 56 56 55 56 55 55 56 57 59 58 60 60 60 61 60 60 60 62 61 61 61
55 56 56 56 56 56 56 57 57 56 56 57 57 56 56 55 56 56 56 57 58 59 59 59 59 60 60 61 61 61 61 62 62
58 58 58 58 58 58 57 56 54 52 50 47 47 48 50 51 50 50 51 53 53 56 55 56 56 57 57 58 60 60 60 60 60
58 58 53 55 50 44 42 41 42 41 40 40 40 42 41 40 41 44 47 48 47 45 46 48 52 54 55 57 58 58 59 58 59
47 42 41 43 42 40 39 40 38 38 39 38 38 37 38 39 39 40 38 33 33 38 41 42 44 48 50 53 54 54 57 58 58
41 40 40 40 39 37 37 36 35 34 35 32 31 35 32 37 39 35 26 28 34 35 37 37 41 39 39 40 43 45 45 48 51
39 37 35 38 34 31 30 30 30 33 31 26 31 25 30 34 31 27 22 32 33 33 29 31 33 33 31 35 36 37 39 40 42
33 33 30 31 30 27 26 28 29 29 28 29 20 25 29 27 24 17 30 30 30 22 24 26 23 23 31 30 35 38 39 39 39
28 27 26 25 25 24 23 23 26 30 28 23 25 22 25 25 19 27 28 28 19 22 22 19 22 23 26 34 32 32 30 31 36
25 23 22 22 23 21 22 21 23 27 27 25 24 20 22 20 27 26 28 20 20 22 21 24 24 27 26 25 29 27 26 30 33
21 20 20 20 20 18 20 21 21 24 25 25 26 24 25 24 26 28 21 21 20 22 23 25 27 27 24 26 24 24 25 25 27
19 18 18 17 18 18 18 20 17 21 26 23 24 21 22 25 25 17 19 20 20 21 23 21 27 24 22 22 21 21 20 25 30

GFSFLT1_sfc_30mbdewp_036.txt.gz
Dewpoint
59 59 58 57 57 58 57 56 57 57 58 58 58 59 59 60 58 56 55 56 55 57 53 58 58 58 59 58 60 60 60 59 58
59 59 58 58 58 58 58 59 59 59 60 59 58 58 58 59 57 56 55 54 57 58 56 55 59 59 59 59 59 58 57 58 57
59 58 60 59 59 59 58 59 60 61 62 62 61 61 61 60 58 57 55 55 56 58 58 57 56 58 58 58 59 60 60 58 58
59 59 60 60 60 59 59 59 59 59 60 61 62 64 64 63 61 59 58 58 58 56 58 57 58 57 57 58 57 60 59 62 60
60 61 61 60 60 60 60 59 59 60 60 60 62 63 62 62 62 61 59 60 60 59 58 57 57 58 58 58 58 58 60 61 61
59 60 61 61 61 61 60 60 60 61 62 62 62 62 61 60 60 60 59 61 61 60 59 59 58 56 58 59 59 58 58 58 60
57 57 59 61 61 61 61 61 62 62 61 60 60 58 58 58 59 59 59 61 61 61 60 60 59 58 58 59 59 60 60 59 59
58 58 59 60 59 58 59 58 58 58 59 58 58 58 57 58 59 58 59 60 60 60 60 61 61 60 60 60 59 60 60 61 61
56 56 56 57 57 57 57 57 57 57 57 57 57 56 56 56 56 56 56 59 58 56 56 58 60 60 60 60 61 61 61 61 62
55 55 56 56 57 57 57 56 55 50 46 43 43 45 47 45 46 47 49 52 52 51 52 53 56 58 59 59 60 60 60 61 61
58 58 57 56 53 48 42 42 42 41 40 39 39 40 39 39 39 42 44 42 40 46 47 47 48 50 53 55 56 57 58 58 58
50 45 43 43 41 40 40 39 38 37 37 35 37 34 36 35 37 41 33 31 36 38 42 43 41 48 47 49 49 49 50 51 51
41 41 41 40 38 37 36 34 31 33 32 29 28 33 28 32 39 32 23 29 35 36 34 34 38 36 38 40 43 45 44 45 45
39 38 38 36 32 30 31 29 30 31 27 24 26 27 25 33 31 22 22 32 33 29 26 34 29 29 31 35 37 38 40 42 43
34 32 33 31 27 25 25 25 28 31 26 26 23 18 26 34 23 18 28 32 25 22 25 23 21 25 29 29 35 39 39 39 37
29 27 26 27 24 23 23 23 26 29 26 23 18 22 29 25 16 22 28 27 20 22 21 18 23 25 25 32 34 34 35 35 33
24 24 23 23 22 21 21 22 22 28 28 22 25 20 22 23 13 25 27 21 20 24 19 22 23 25 28 28 30 29 30 29 30
21 21 21 21 20 19 21 21 19 21 27 25 18 11 15 19 23 18 23 16 22 20 23 23 22 22 27 26 27 26 26 28 30
20 19 19 19 19 18 18 21 18 21 22 24 25 24 21 17 18 25 18 21 17 22 22 22 23 20 27 24 25 23 25 25 28
17 17 16 16 17 16 16 17 16 20 23 22 24 22 20 21 23 16 15 17 18 19 20 23 20 26 22 24 23 22 24 27 30

GFSFLT1_sfc_30mbdewp_039.txt.gz
Dewpoint
59 59 57 57 57 57 57 56 56 57 57 57 56 58 59 60 59 57 56 56 56 58 58 55 58 59 59 58 59 60 61 60 59
59 59 58 58 57 58 58 58 58 59 60 60 60 59 60 59 58 57 55 54 56 57 59 58 56 58 61 59 57 59 58 58 58
60 59 60 59 59 59 58 59 60 60 61 61 61 62 62 61 60 59 58 57 59 57 58 59 59 57 56 58 60 60 61 60 60
60 59 60 60 60 60 59 59 59 59 60 60 61 63 64 64 62 61 60 60 61 60 57 58 58 58 58 58 58 57 57 60 59
61 60 61 60 60 60 60 60 59 59 60 60 61 62 62 62 61 61 60 61 62 62 61 60 59 59 58 59 59 59 59 58 59
59 61 61 62 62 61 61 60 60 61 62 62 62 62 61 60 59 60 60 61 62 62 62 62 61 60 60 60 61 60 60 60 59
58 58 59 61 62 62 61 62 62 63 61 60 59 58 58 57 58 59 60 61 62 62 62 62 62 61 61 60 60 60 60 61 62
58 58 58 58 59 59 58 58 57 57 57 58 58 57 56 56 57 57 54 54 57 57 57 58 59 60 60 60 61 61 61 61 62
58 56 56 57 57 57 57 57 57 56 52 49 44 45 45 44 46 45 49 52 50 50 51 53 54 56 59 60 60 60 60 61 61
54 55 56 57 57 56 53 48 43 41 40 39 39 39 38 38 38 42 46 43 46 48 49 49 50 52 54 55 56 57 57 58 58
58 55 50 44 43 42 41 39 38 37 35 32 33 32 35 32 37 37 28 40 39 42 45 43 45 47 46 48 49 50 51 51 51
45 43 41 40 40 38 34 32 32 31 30 26 26 29 29 29 38 24 24 33 36 34 38 41 39 40 40 42 44 45 45 45 46
42 40 38 35 32 32 29 28 28 28 26 22 22 27 22 32 28 20 26 33 28 27 33 32 30 32 34 37 37 39 42 45 45
38 36 33 29 26 25 26 26 29 27 24 21 24 20 21 33 21 19 27 31 23 24 25 25 25 28 31 32 37 39 40 40 41
31 30 27 25 23 21 20 23 26 30 25 22 18 19 25 31 17 21 27 25 20 23 21 20 23 25 28 28 34 37 38 38 38
25 25 23 23 21 20 21 23 21 27 26 20 20 22 27 26 17 22 25 21 19 24 18 21 23 24 27 26 30 34 33 32 34
22 21 20 20 19 19 20 18 18 22 27 22 24 15 14 21 13 19 26 18 20 22 18 22 23 22 23 24 30 27 28 31 31
20 19 19 19 19 18 20 18 18 19 24 25 16 8 9 18 20 14 23 16 21 17 21 23 20 24 20 25 26 26 27 28 31
19 18 18 18 18 16 19 18 17 20 19 22 23 22 22 13 14 22 16 18 13 18 21 20 22 23 21 28 24 25 24 27 30
17 16 15 16 16 15 15 15 15 18 20 20 22 20 19 21 21 12 13 11 13 17 19 22 20 21 24 23 25 22 24 27 30

GFSFLT1_sfc_30mbdewp_042.txt.gz
Dewpoint
59 58 57 57 57 57 56 56 57 57 57 56 56 57 58 59 58 57 56 56 56 57 58 58 56 58 59 59 58 58 59 60 59
59 59 58 58 57 58 58 58 58 59 60 61 61 60 61 60 59 58 57 56 58 57 56 59 59 57 57 61 60 58 57 58 58
60 59 59 59 58 58 58 59 59 60 61 61 61 63 64 63 61 60 60 59 61 61 58 58 59 59 58 57 56 60 60 61 61
61 60 60 60 60 60 60 60 59 60 60 60 61 62 63 63 62 61 61 61 62 62 62 60 59 60 59 60 59 59 58 58 58
61 60 62 60 60 61 61 60 60 60 60 61 62 63 63 61 60 59 59 61 62 63 63 63 62 61 61 61 60 60 60 60 60
60 60 61 61 62 62 62 61 62 63 63 62 62 61 59 58 58 58 60 62 63 63 63 63 62 62 62 61 61 61 60 61 62
59 58 58 60 62 62 62 62 61 59 58 58 58 57 56 56 56 57 54 55 57 59 59 59 59 60 62 62 62 61 61 60 61
58 58 58 58 59 58 57 57 57 57 56 53 49 47 45 44 46 46 51 51 52 52 53 54 55 55 56 58 60 61 62 62 62
58 57 56 56 57 56 56 56 53 43 41 39 40 40 38 37 38 43 45 46 49 50 51 51 52 54 55 57 57 56 57 57 58
55 55 57 57 56 51 45 42 40 36 34 31 32 31 33 30 38 32 43 43 45 47 48 47 49 49 49 50 51 51 52 53 53
58 52 44 42 41 40 38 34 33 29 28 23 25 28 26 30 34 24 33 39 38 41 44 43 43 43 43 45 46 46 47 47 49
48 42 40 38 37 32 28 29 30 25 24 20 22 26 21 34 22 24 30 29 32 37 38 37 36 37 38 40 41 42 43 46 47
42 39 34 30 28 27 26 26 28 25 22 19 20 22 20 34 17 25 31 27 23 27 30 28 30 32 34 36 37 41 41 43 43
37 32 27 25 22 21 24 24 30 24 20 17 20 18 21 31 17 25 29 22 21 24 22 24 25 26 30 33 35 35 40 40 41
29 25 23 22 19 19 19 19 26 27 22 20 15 23 27 28 16 25 27 19 20 24 19 20 23 24 26 30 31 31 37 36 35
24 22 21 21 19 18 17 20 18 24 25 17 17 21 22 27 20 18 26 18 19 22 16 18 22 23 24 27 25 31 33 32 35
20 19 19 19 18 18 16 15 16 20 26 20 20 10 10 16 12 19 24 17 20 17 12 18 21 21 23 25 23 28 28 31 33
19 19 18 18 19 18 17 17 17 14 20 25 14 4 6 17 17 17 24 15 17 13 16 20 19 20 23 23 23 27 26 29 31
18 17 17 17 17 16 17 17 18 19 16 19 20 20 20 10 11 19 15 16 12 13 17 18 20 22 22 23 25 23 25 28 30
16 15 15 15 16 15 14 14 14 17 17 17 18 18 18 21 19 10 12 13 13 14 17 19 17 19 22 23 24 24 25 27 29

GFSFLT1_sfc_30mbdewp_045.txt.gz
Dewpoint
58 58 57 57 57 57 56 56 57 57 57 57 58 58 58 59 57 57 57 57 57 56 57 58 58 57 58 60 60 59 59 59 60
59 58 58 57 57 58 58 58 58 59 60 62 62 62 62 61 61 60 60 60 61 61 59 57 59 60 59 57 61 59 57 57 57
60 59 59 59 59 58 58 59 59 60 60 60 61 62 63 61 60 61 61 61 62 63 62 61 58 59 60 60 57 57 58 60 60
61 61 61 60 60 60 61 60 60 60 60 61 61 63 63 60 60 60 59 60 62 63 63 63 62 60 60 60 61 60 59 60 60
61 60 61 61 61 61 62 61 61 61 62 62 63 62 61 59 59 59 59 62 63 64 64 63 63 63 63 62 62 61 61 61 61
61 60 61 61 62 62 62 62 63 63 62 61 60 59 58 57 57 58 57 57 59 61 61 60 60 61 62 63 63 63 62 61 62
59 58 58 59 61 62 61 60 59 58 58 57 54 50 46 48 46 47 52 53 54 55 55 56 57 57 57 58 61 62 62 63 63
58 58 58 59 59 59 58 58 58 53 46 43 43 42 39 39 38 44 48 49 51 52 53 54 54 57 57 58 57 56 57 58 59
58 58 57 57 57 57 58 54 43 41 36 33 35 33 32 29 36 36 48 47 47 50 52 51 52 51 52 52 53 53 54 54 54
56 56 58 57 53 48 44 41 36 32 27 24 26 30 23 30 33 31 44 43 45 47 49 47 46 46 46 48 48 48 48 50 51
57 52 45 43 40 38 36 33 30 26 23 20 22 27 21 35 24 31 36 39 42 43 42 41 41 41 42 43 43 44 46 47 48
50 44 42 39 34 29 28 30 27 25 22 19 21 23 20 33 24 30 27 25 35 36 35 34 34 35 36 38 40 41 42 43 45
42 37 33 30 28 27 26 28 28 23 21 19 20 20 22 21 26 29 25 24 23 25 30 26 27 30 32 35 37 38 38 40 43
37 31 27 24 24 25 22 27 28 21 19 18 19 23 26 20 25 26 23 22 24 22 20 22 23 25 28 32 35 35 35 38 39
29 26 24 23 21 20 22 20 24 21 21 18 17 25 31 22 21 20 24 21 21 21 16 14 14 21 26 28 29 30 34 37 37
24 24 22 22 19 17 16 21 20 20 23 18 17 20 21 27 24 16 24 20 20 17 12 11 13 16 21 22 26 30 30 34 34
22 22 21 20 18 17 18 19 18 19 25 16 19 12 12 18 16 23 22 18 18 13 10 12 14 16 17 20 24 26 28 31 33
21 21 20 21 20 18 19 19 20 16 21 20 14 8 7 14 15 17 22 15 14 12 13 14 13 16 17 20 21 24 26 28 32
19 19 18 19 19 18 17 17 18 19 15 18 17 19 17 8 6 15 15 15 12 13 14 13 15 16 17 19 22 24 27 29 31
18 18 19 17 17 17 16 16 16 16 16 16 15 16 16 20 17 6 9 12 13 14 14 15 16 16 18 19 20 23 25 28 30

GFSFLT1_sfc_30mbdewp_048.txt.gz
Dewpoint
58 57 57 57 57 57 56 57 57 58 59 60 60 60 60 60 57 57 57 57 59 60 58 56 58 59 58 58 60 61 59 60 60
59 58 58 57 58 58 58 59 59 60 61 62 62 63 63 60 58 58 59 59 62 62 61 60 58 60 60 62 58 61 62 58 58
59 59 59 59 59 59 59 59 59 60 60 60 61 62 63 58 58 59 59 60 62 63 62 63 62 60 60 60 62 58 58 58 60
62 61 61 60 60 61 61 60 60 60 60 61 62 63 63 59 59 59 58 62 63 63 63 63 63 63 62 61 61 61 62 61 60
62 61 61 61 61 61 62 62 62 62 63 63 62 61 60 58 58 58 59 59 60 61 62 61 61 62 63 63 63 63 63 62 62
60 60 60 61 62 62 63 63 64 62 61 60 59 57 56 56 56 56 54 55 56 57 57 57 58 58 58 60 62 63 63 63 63
57 58 58 59 60 61 61 60 58 58 57 56 53 50 48 48 47 47 51 51 53 54 55 56 56 58 59 59 58 58 59 60 60
55 56 56 57 58 57 58 58 57 53 49 47 46 44 43 42 41 45 49 50 50 51 54 54 54 54 54 54 55 55 56 56 56
55 56 56 57 57 57 58 55 48 44 40 37 37 35 33 30 33 40 47 48 51 50 52 50 49 49 49 51 50 49 49 51 52
57 56 56 57 56 54 50 46 42 38 34 30 29 29 25 27 28 34 44 45 48 48 47 46 45 45 45 46 46 46 47 49 49
56 56 54 51 46 41 39 38 36 32 27 24 23 24 21 29 27 30 37 43 43 42 41 39 38 38 39 40 41 43 44 44 45
58 50 47 44 38 35 35 33 28 26 25 23 22 22 20 29 26 30 27 30 36 35 34 32 31 33 34 37 38 40 41 40 41
48 45 40 36 35 31 29 28 28 25 23 22 22 20 21 23 26 27 24 25 22 25 28 29 28 30 31 34 37 38 38 38 40
45 38 31 30 29 28 25 28 25 22 21 18 17 23 25 23 23 24 22 24 24 21 18 18 18 22 29 32 33 34 35 37 38
36 28 27 26 26 25 24 24 23 20 20 18 17 23 28 23 24 22 20 21 22 20 17 13 11 16 23 27 30 33 35 34 35
28 26 26 25 23 21 19 21 21 21 20 16 14 19 20 26 25 21 20 20 18 16 12 11 12 12 17 21 26 30 31 33 35
28 26 24 23 20 20 19 20 19 19 21 16 19 13 14 18 24 17 20 15 16 12 12 13 12 14 15 17 24 25 28 31 33
25 24 23 22 21 20 20 21 20 17 19 17 15 12 11 11 12 18 13 15 12 13 15 14 13 14 15 17 19 22 27 30 33
22 21 21 21 20 19 17 18 16 17 15 16 14 16 13 7 6 10 12 13 11 14 14 14 14 15 16 18 20 22 25 28 31
21 20 20 18 18 18 18 17 16 14 15 14 13 13 13 15 14 9 9 11 13 14 14 15 15 15 15 16 17 21 25 28 30

GFSFLT1_sfc_30mbdewp_054.txt.gz
Dewpoint
57 57 57 57 58 58 59 59 59 61 61 62 62 62 62 62 61 58 59 61 61 63 62 62 61 58 58 59 61 60 60 62 61
58 57 58 58 57 58 59 59 60 61 61 62 62 62 61 59 59 58 61 62 62 63 62 63 63 63 62 61 61 62 63 60 60
59 58 58 59 59 59 60 60 60 60 61 61 62 62 61 59 59 59 61 62 62 62 62 63 63 64 64 64 64 62 62 63 62
60 60 60 60 61 61 61 60 60 60 62 63 63 62 61 60 60 58 58 60 60 61 60 60 61 61 61 63 63 63 64 64 64
61 62 61 61 61 62 62 62 62 62 63 62 60 60 59 59 57 54 56 57 58 58 58 59 60 62 61 60 60 61 61 61 61
63 62 62 62 62 62 63 63 63 63 62 60 58 57 56 51 51 52 54 54 56 57 58 59 58 57 57 58 58 57 57 57 58
60 60 61 62 62 62 62 60 59 60 60 59 55 52 47 47 49 50 49 50 51 56 57 56 54 54 55 54 53 53 53 54 54
58 58 58 59 59 60 61 59 59 51 47 46 45 42 40 37 46 49 49 52 54 56 53 52 51 51 50 50 50 50 51 52 52
55 58 57 58 57 59 59 55 49 47 42 39 36 35 33 29 44 46 48 48 53 52 51 48 47 46 46 45 45 46 47 47 47
55 56 56 57 57 57 54 49 45 41 38 33 28 28 28 26 39 47 50 50 49 48 45 43 42 41 41 40 41 42 43 44 45
56 55 56 54 50 46 43 43 41 35 30 29 27 26 26 27 29 43 47 45 44 42 41 39 39 38 38 39 40 41 42 42 43
56 56 54 50 47 43 41 37 32 32 30 28 26 23 23 23 26 37 41 41 39 35 34 32 33 33 35 39 40 40 40 40 41
56 54 50 44 43 40 35 34 32 30 28 27 25 25 26 25 27 29 31 34 33 34 28 25 25 26 28 34 37 39 39 40 40
53 47 44 42 38 35 32 29 28 26 26 23 20 25 26 26 25 26 25 25 26 26 25 22 21 21 24 28 33 36 38 38 39
50 45 42 37 34 32 32 28 26 25 23 21 22 25 29 26 27 25 24 25 23 23 20 19 19 20 22 26 28 31 35 36 37
41 38 35 34 32 30 27 26 27 24 23 23 23 25 28 28 26 27 25 24 22 19 17 17 18 19 20 21 24 28 30 33 36
36 34 33 29 27 25 25 27 24 24 22 18 23 22 22 24 24 28 22 21 19 17 16 17 17 17 19 21 23 24 27 30 33
40 37 35 35 34 31 28 25 25 23 22 19 19 16 19 14 20 23 22 16 19 16 17 19 18 17 18 21 22 22 25 27 31
38 37 36 33 30 26 23 23 21 24 20 20 19 19 17 12 8 16 17 17 16 17 18 17 18 17 18 21 23 21 23 26 30
34 31 28 28 25 20 21 20 18 19 20 19 17 16 17 16 15 15 15 17 18 18 19 17 17 18 18 20 21 19 23 26 29

GFSFLT1_sfc_30mbdewp_057.txt.gz
Dewpoint
58 57 58 60 60 61 61 60 61 61 61 62 63 63 62 61 60 60 62 61 62 63 62 61 63 62 59 59 61 62 63 60 62
57 57 57 58 59 60 60 60 61 62 62 62 62 62 60 60 59 61 62 63 63 63 63 63 64 64 64 63 62 62 62 63 61
58 58 59 59 59 60 60 60 60 61 61 62 62 61 61 60 60 60 61 62 62 62 62 62 62 62 63 64 64 65 64 64 64
59 59 60 60 61 61 61 60 60 61 62 62 62 61 60 60 58 57 59 60 60 60 61 61 61 63 62 62 61 62 62 62 62
61 62 61 61 62 62 62 61 61 62 62 61 60 59 60 59 53 54 56 57 58 59 59 61 60 60 60 60 58 58 58 58 59
63 62 62 62 62 63 63 63 63 63 62 60 59 57 54 53 51 53 55 55 57 59 60 58 57 56 57 56 55 55 55 55 56
62 62 62 63 63 63 63 62 62 61 60 59 58 46 44 49 48 51 51 50 54 58 56 55 54 54 53 53 52 52 54 54 54
60 61 61 62 62 62 62 60 59 53 56 53 41 38 36 46 47 50 51 54 56 55 53 52 50 49 49 49 48 49 49 49 49
58 58 58 58 59 58 59 59 50 44 40 37 33 31 28 42 43 50 52 52 55 52 49 47 46 45 44 44 44 45 45 46 46
57 57 56 57 57 58 56 49 44 39 30 29 27 28 27 38 44 51 53 51 50 47 45 44 43 42 41 41 42 43 44 44 44
55 56 57 57 53 50 46 43 39 31 29 29 26 25 25 31 44 47 49 48 45 43 40 38 37 38 39 41 42 42 42 43 43
56 56 54 50 45 42 38 33 32 30 29 26 26 24 23 24 36 43 43 42 39 36 33 32 32 33 34 38 39 41 42 42 43
56 55 50 45 43 41 36 33 31 29 27 25 24 25 25 25 31 39 37 35 35 33 29 27 27 28 30 33 36 38 40 40 41
54 49 45 42 38 35 31 29 29 25 24 21 21 26 27 26 27 27 27 29 29 27 26 27 25 25 27 31 34 34 36 38 39
48 45 42 37 34 33 30 26 26 24 20 20 23 26 29 27 26 24 25 25 24 23 20 18 19 23 24 26 28 31 34 35 37
47 43 38 34 32 30 28 28 25 20 22 19 21 26 28 27 27 27 24 24 23 20 17 17 18 18 23 23 25 28 30 32 34
43 38 35 32 29 27 25 25 24 23 22 16 24 20 21 24 27 28 26 22 20 18 16 17 17 17 18 21 22 23 26 29 32
39 36 33 31 32 29 28 27 26 23 21 20 19 15 16 16 19 25 23 17 19 17 19 19 18 18 18 21 22 25 24 27 30
37 36 36 35 36 32 26 24 24 25 20 20 20 20 17 5 2 15 19 18 17 18 18 19 18 17 19 22 26 24 22 25 29
40 38 35 34 33 26 22 21 20 22 21 21 18 17 18 17 14 11 16 17 17 19 19 18 18 19 20 20 22 25 24 25 28

GFSFLT1_sfc_30mbdewp_060.txt.gz
Dewpoint
59 60 62 63 63 63 62 61 61 61 61 61 62 62 61 60 59 58 62 61 63 62 60 60 63 63 60 59 60 62 63 62 61
58 58 60 61 61 62 61 62 62 62 63 63 62 60 61 59 59 61 62 63 63 63 63 63 64 64 65 65 63 62 62 63 64
58 58 58 59 60 61 61 61 61 61 61 62 61 61 61 60 61 61 61 62 62 61 62 62 63 63 63 63 63 63 64 64 64
59 59 59 59 60 60 60 60 60 61 62 62 61 61 61 59 58 58 60 61 60 60 61 62 62 62 61 60 59 59 59 60 61
60 61 61 61 61 61 61 61 61 62 62 62 60 59 58 55 53 55 58 58 59 60 62 60 59 59 58 58 58 58 58 58 59
62 61 62 62 62 62 62 62 62 63 62 61 59 53 55 51 52 54 55 56 59 60 59 57 57 57 56 55 54 55 56 56 56
62 62 62 63 63 64 63 63 63 62 60 58 50 45 50 48 49 52 53 51 58 57 56 55 54 53 52 51 51 52 51 51 50
62 61 62 63 63 63 64 62 60 58 58 47 38 39 46 46 47 50 55 55 57 54 52 51 49 48 48 47 47 47 48 48 48
60 61 60 60 61 60 60 59 56 44 43 36 32 29 40 42 45 52 51 57 54 52 49 47 46 45 44 44 44 45 45 46 46
59 58 58 58 58 58 58 58 43 33 30 28 28 27 34 41 49 53 54 54 51 48 46 44 42 41 42 43 43 44 44 45 45
58 57 56 56 57 57 54 47 38 31 29 26 25 26 31 42 48 49 51 49 46 43 40 38 38 38 39 41 42 43 44 44 45
57 56 57 56 53 50 41 34 32 30 28 26 24 23 23 35 44 45 45 43 39 36 34 33 33 33 36 37 40 41 42 42 43
56 55 55 49 43 39 34 33 31 29 27 24 24 25 25 27 42 41 39 35 36 33 30 29 29 30 32 36 38 37 38 40 41
56 54 50 45 42 37 34 31 29 26 23 21 21 26 28 28 33 36 33 33 31 27 30 28 26 26 28 31 33 35 36 38 39
54 50 45 41 37 33 30 28 26 24 20 20 23 26 29 27 27 27 26 28 25 24 20 18 19 25 24 25 28 31 34 35 36
50 46 41 37 36 32 28 26 23 19 22 20 22 27 29 26 28 27 25 25 23 20 17 18 18 18 24 24 25 26 29 31 33
48 43 38 35 33 30 27 27 24 22 21 15 23 19 21 24 26 28 26 24 21 18 17 18 18 18 19 22 25 24 25 28 32
45 41 37 34 34 30 28 29 28 23 20 20 20 16 13 16 18 24 22 19 19 18 19 19 18 18 18 22 24 27 26 27 30
44 39 36 37 35 32 33 31 29 24 19 20 19 20 16 3 1 16 19 19 17 17 19 19 19 19 20 23 26 28 27 27 30
44 41 39 39 37 33 30 28 26 24 23 22 18 17 18 17 12 8 14 18 18 19 19 19 19 19 19 21 25 27 28 29 31

GFSFLT1_sfc_30mbdewp_063.txt.gz
Dewpoint
61 62 64 65 64 64 63 62 61 61 60 61 62 61 61 60 59 56 60 62 63 61 60 64 63 64 62 59 60 62 63 64 61
60 61 63 64 63 63 62 63 62 62 62 62 61 61 61 59 60 61 61 63 63 63 63 63 63 64 64 64 64 64 63 63 64
59 60 61 61 62 62 62 62 62 62 62 61 61 62 60 61 61 61 62 63 61 62 62 63 63 63 62 61 61 61 62 63 63
58 58 59 60 61 61 61 61 61 61 61 62 61 61 60 59 57 59 60 61 60 61 63 62 61 61 59 58 58 59 59 60 61
60 60 61 60 61 61 60 60 61 62 62 61 60 59 58 54 54 56 58 59 61 62 61 59 59 58 57 57 57 57 57 57 56
61 61 62 62 62 62 61 61 62 63 62 60 54 56 54 52 52 53 56 58 60 59 58 58 56 55 55 54 54 54 54 53 53
61 61 62 63 63 63 63 63 63 62 60 55 46 52 50 48 49 53 53 55 59 57 55 54 53 52 51 50 50 50 50 50 49
61 61 62 63 63 63 64 63 61 59 58 43 40 48 46 47 47 52 56 57 56 54 52 50 48 48 47 47 47 47 47 48 48
61 60 61 61 61 61 61 59 55 46 45 36 32 40 42 43 47 52 53 57 54 51 49 47 46 45 45 45 45 46 47 47 47
60 60 60 60 59 59 59 57 43 35 31 29 29 29 40 43 52 55 56 55 51 48 46 44 43 43 43 44 44 45 46 46 46
60 59 59 58 58 58 58 54 36 30 28 26 26 28 39 45 50 51 52 50 47 43 41 39 39 38 39 41 42 43 44 44 45
59 59 57 57 57 56 49 38 32 30 27 26 23 23 31 43 46 47 46 43 41 38 36 35 35 36 37 39 40 40 41 42 43
58 58 57 56 53 49 39 33 31 29 27 24 25 25 25 35 43 43 40 36 36 34 32 31 30 31 32 34 37 38 39 39 40
57 57 56 52 47 41 35 33 31 28 24 22 23 26 27 32 40 38 34 34 30 27 32 29 27 27 28 31 32 34 35 37 39
56 55 52 47 41 37 34 31 27 25 21 21 23 27 29 28 34 34 29 32 28 24 21 18 19 28 26 26 28 31 32 33 35
55 52 48 43 40 36 32 28 24 20 22 22 24 27 29 26 27 27 26 26 24 20 17 18 18 19 26 27 27 28 29 30 33
54 50 46 42 38 32 29 29 24 21 22 17 22 20 22 26 26 28 25 24 22 18 19 18 18 19 19 23 29 30 29 30 32
54 49 44 40 40 35 31 29 27 23 24 23 22 18 16 20 18 25 23 21 19 19 19 19 18 19 20 25 27 31 30 30 31
51 47 43 41 40 38 37 36 32 27 23 21 20 19 18 6 3 17 19 19 18 17 19 19 19 19 21 23 27 29 29 31 33
49 45 42 43 44 43 40 37 31 28 26 21 18 17 18 16 8 4 14 19 19 19 19 19 18 18 19 21 25 26 27 29 31

GFSFLT1_sfc_30mbdewp_066.txt.gz
Dewpoint
60 63 64 66 66 66 64 63 61 60 59 62 62 61 62 60 56 57 60 62 63 63 64 65 64 65 64 59 60 61 63 64 63
61 61 65 63 64 64 63 63 62 62 61 62 61 62 61 59 59 61 61 62 62 63 63 64 64 63 63 63 62 64 64 64 64
61 62 64 64 63 63 63 63 63 62 62 61 62 62 61 61 61 61 62 62 62 62 63 63 62 61 60 59 59 60 62 63 63
60 62 62 62 63 62 62 62 61 61 61 62 61 61 61 57 58 59 60 61 61 62 62 61 59 58 57 57 57 57 58 57 58
59 60 61 61 62 62 61 60 61 62 62 61 60 60 57 54 56 57 59 61 62 61 59 59 57 56 56 56 56 56 56 55 55
61 61 62 62 61 61 61 61 62 63 61 58 58 57 52 52 51 52 56 60 60 59 58 56 56 54 53 53 53 52 52 52 51
61 61 63 63 63 63 62 62 64 60 58 47 53 51 49 48 50 55 53 60 58 56 55 53 52 51 50 50 50 49 50 50 49
61 60 62 63 63 63 63 63 61 59 53 41 49 47 47 45 47 50 56 59 56 53 51 50 48 47 47 47 48 48 48 48 48
60 60 61 61 62 61 62 59 51 55 43 35 42 43 42 42 48 53 58 56 54 51 49 48 46 46 46 47 47 47 48 48 48
60 59 60 60 60 59 59 56 41 39 33 30 30 38 39 47 53 56 56 54 50 49 46 44 43 43 44 44 45 46 46 46 46
60 59 59 59 59 59 58 51 35 31 28 27 28 35 41 48 51 52 53 51 47 44 42 41 40 40 41 42 42 44 44 45 45
60 59 59 58 58 57 54 43 32 29 27 25 24 31 40 46 48 48 46 44 43 40 39 38 37 37 38 40 41 41 41 41 42
59 59 59 58 56 55 47 38 32 30 27 26 25 24 28 43 45 44 40 38 36 36 35 33 32 32 34 36 36 37 38 39 40
58 58 58 57 54 50 42 34 32 30 26 24 25 26 26 36 42 41 35 36 30 30 32 31 29 29 30 31 32 34 36 37 38
58 57 57 54 51 46 38 34 28 28 23 22 23 27 29 31 39 36 33 34 28 25 23 18 20 31 30 29 30 32 33 33 35
57 56 55 51 48 45 36 31 27 23 22 23 24 27 29 27 30 32 28 28 25 20 18 18 19 19 28 29 30 32 33 33 34
57 55 53 49 45 40 34 31 26 22 24 19 21 19 23 27 27 28 26 25 23 18 18 18 18 18 19 26 31 31 31 33 34
56 54 52 48 45 41 35 32 31 28 24 26 25 21 21 22 20 26 27 23 20 19 19 18 18 19 23 27 30 31 32 33 35
56 54 51 48 45 42 37 39 41 35 29 25 25 22 22 15 10 18 20 19 19 18 19 18 18 20 21 23 28 29 29 30 32
55 52 49 46 45 44 42 41 38 38 35 31 26 20 18 14 8 5 16 20 19 19 19 19 18 19 20 21 26 27 27 29 32

GFSFLT1_sfc_30mbdewp_069.txt.gz
Dewpoint
60 66 66 65 65 66 65 62 60 59 61 63 62 62 62 58 58 61 63 63 64 64 64 65 65 65 63 65 64 61 63 65 65
62 65 66 66 65 64 63 63 62 61 63 62 62 62 61 59 61 62 63 63 62 63 64 63 62 61 61 62 63 64 64 64 63
60 64 64 64 64 64 64 63 62 62 62 62 62 62 60 61 61 62 62 63 61 63 63 61 60 59 59 58 58 60 59 60 60
62 63 64 64 63 63 63 63 62 62 62 62 62 62 60 59 59 59 60 62 62 62 61 59 58 58 58 58 57 57 57 57 57
61 63 63 63 63 62 63 61 62 62 62 61 61 61 57 57 57 59 60 62 61 60 59 57 57 57 56 56 55 54 54 53 53
59 61 62 62 63 62 61 61 63 63 60 59 60 55 54 53 53 56 60 60 59 58 57 57 55 53 53 52 52 53 52 51 51
60 60 62 62 62 62 62 63 63 60 54 55 55 53 50 49 52 54 58 59 57 56 54 53 52 51 50 50 50 50 51 50 50
60 61 62 62 63 62 63 63 61 59 50 49 51 49 47 46 51 53 60 58 56 53 51 50 49 49 49 49 49 49 49 49 49
60 60 62 62 62 63 63 61 55 59 44 45 46 45 43 42 46 50 59 57 54 51 50 48 48 48 48 47 48 49 49 48 48
60 59 60 61 62 61 61 57 48 50 39 35 40 40 40 47 55 57 56 55 51 50 47 46 45 45 45 45 46 47 47 47 47
60 59 59 60 60 60 60 54 42 41 34 32 31 38 42 49 54 54 53 52 48 46 44 43 42 42 42 44 43 44 44 44 45
59 59 59 59 59 59 58 46 37 33 30 29 30 36 41 47 51 50 49 47 45 43 41 41 38 39 40 40 41 41 41 41 42
60 60 59 59 58 58 55 46 36 33 31 29 27 29 38 44 47 47 43 41 39 39 37 35 34 34 36 36 37 37 38 39 40
60 60 60 59 58 56 52 43 39 35 32 30 28 28 28 39 43 43 38 38 35 35 34 33 32 31 32 33 34 35 36 36 37
60 59 59 59 57 54 48 43 35 35 32 23 26 29 30 34 41 40 35 36 31 33 31 24 25 33 33 32 33 34 35 36 36
59 59 58 58 56 53 48 40 34 30 27 28 27 29 31 30 36 38 34 33 29 25 22 21 21 21 29 29 31 33 33 34 36
59 59 58 56 55 52 45 37 32 29 28 27 27 26 26 29 29 31 30 30 27 23 21 20 20 21 21 30 32 32 35 36 37
58 58 57 55 53 50 45 39 38 34 28 28 30 26 27 26 25 28 29 27 26 23 21 20 20 21 25 25 29 31 32 32 34
58 57 57 55 53 50 46 41 40 39 35 31 27 28 28 22 20 20 25 25 23 22 22 20 20 22 22 26 29 30 30 31 33
58 57 56 54 52 50 46 41 42 42 40 37 32 28 26 20 16 15 19 21 22 21 20 20 19 20 22 23 27 28 28 29 31

GFSFLT1_sfc_30mbdewp_072.txt.gz
Dewpoint
66 67 66 65 66 67 64 60 59 61 63 63 62 62 59 59 61 62 63 64 65 65 65 65 64 64 64 65 60 64 65 65 65
66 66 66 66 66 64 63 61 61 63 63 63 62 62 60 57 59 60 62 61 63 63 63 62 62 61 62 63 64 63 62 62 63
65 66 66 66 65 64 64 63 61 63 62 63 63 61 60 58 58 59 60 62 63 63 62 60 60 59 59 59 59 59 60 60 60
62 65 64 65 65 64 64 63 62 62 62 62 63 62 60 57 58 57 57 63 62 62 60 58 58 58 58 57 57 56 56 56 57
63 64 65 64 64 63 63 62 62 62 62 62 62 59 57 57 57 57 59 62 60 59 58 57 57 57 56 55 55 54 53 53 54
61 61 63 63 63 63 62 62 64 63 60 61 60 58 56 55 54 54 62 60 58 58 57 56 54 54 53 53 53 52 52 52 52
55 59 63 63 63 62 62 64 63 60 55 56 56 54 53 51 49 52 61 59 58 56 55 53 52 51 52 52 51 51 51 51 51
56 57 59 60 62 58 61 62 58 57 52 53 53 51 49 48 49 55 61 58 56 53 52 51 50 50 50 50 50 50 50 50 49
53 55 56 57 57 57 58 58 58 56 51 50 49 48 46 44 44 53 60 57 54 52 50 49 49 49 49 49 49 49 49 48 49
53 54 56 56 56 57 57 58 56 57 49 47 46 44 43 43 43 48 58 56 52 51 48 47 46 47 46 47 47 47 47 47 48
53 53 55 56 57 57 57 57 54 53 49 43 41 41 41 42 46 50 54 53 51 48 46 44 43 43 45 45 44 44 44 44 45
53 53 54 55 56 56 57 56 52 47 43 40 36 38 40 42 46 47 47 49 47 45 44 43 41 41 41 41 42 42 41 41 42
54 53 54 54 56 56 56 54 50 46 41 38 36 37 39 39 42 44 43 42 39 43 41 39 37 36 37 38 38 38 39 39 40
55 55 55 55 56 55 55 54 51 46 42 39 36 34 33 37 39 40 41 40 37 36 37 35 34 33 34 34 35 36 36 37 37
58 57 56 57 57 56 55 53 51 49 45 36 34 34 32 32 37 39 38 37 36 34 34 33 30 35 34 34 34 34 37 36 37
58 58 58 57 58 57 55 52 49 45 43 36 36 33 32 31 33 37 36 35 33 31 31 25 23 25 31 30 32 32 33 35 37
59 58 57 57 57 58 56 52 49 48 40 42 42 40 33 30 30 34 34 33 32 29 26 24 24 23 22 30 33 34 36 35 36
60 60 58 57 57 57 57 53 50 46 40 40 45 42 42 32 31 30 32 31 31 28 26 24 23 22 23 28 29 31 32 33 34
61 61 60 59 57 56 57 54 51 50 44 37 34 35 34 32 29 27 29 29 28 28 26 23 23 22 23 27 29 30 30 31 33
61 61 61 60 58 57 56 53 51 50 49 43 37 33 31 27 28 34 24 26 27 26 25 22 22 22 22 23 26 28 29 30 32

GFSFLT1_sfc_30mbdewp_075.txt.gz
Dewpoint
66 66 66 67 67 66 62 60 60 62 63 62 62 60 59 60 61 63 64 65 65 65 65 65 65 64 65 62 64 64 64 64 65
67 66 66 66 66 64 61 61 62 64 63 63 62 62 60 59 60 62 61 63 64 64 63 62 62 62 63 63 62 62 62 62 62
66 66 66 66 65 64 63 61 63 63 63 63 63 60 60 56 57 61 61 64 63 62 60 60 60 60 60 60 59 59 59 60 60
65 66 66 66 65 65 64 62 63 63 63 63 62 61 59 57 56 55 60 63 62 61 59 58 59 58 58 57 56 56 56 56 56
65 65 65 65 65 64 63 62 62 63 63 63 62 59 57 56 56 57 61 61 59 58 57 58 57 56 56 55 54 54 54 54 55
61 62 65 65 64 64 62 62 63 63 62 62 61 59 56 55 53 59 61 59 58 58 57 56 55 54 54 53 53 52 53 53 52
56 61 63 64 64 63 62 64 64 61 57 59 58 57 54 51 49 59 61 59 58 57 55 53 52 53 53 52 52 52 52 51 51
54 59 60 61 62 60 61 63 59 57 53 55 54 53 51 50 49 59 60 58 56 54 53 51 51 51 51 51 51 51 50 50 51
52 54 55 57 58 55 56 58 56 56 53 52 51 50 48 47 47 59 60 58 54 52 51 50 50 50 49 50 50 49 49 49 50
50 52 54 55 54 54 56 56 55 56 51 50 49 48 46 45 42 57 59 56 53 51 49 49 48 48 48 48 48 48 47 47 48
51 51 54 55 55 55 55 56 55 55 53 48 47 45 44 44 44 54 56 55 53 50 48 46 46 45 46 46 45 44 44 44 44
51 51 53 54 54 54 55 55 54 52 51 47 43 43 42 44 45 48 53 51 50 48 46 45 43 43 43 43 43 42 41 41 42
52 52 52 53 54 54 55 55 54 50 48 45 42 41 42 43 43 45 45 47 44 46 45 43 40 39 40 39 39 39 39 39 39
53 52 52 52 53 54 54 55 52 51 47 46 42 40 41 42 40 42 42 42 41 42 44 41 38 37 37 36 37 37 37 38 38
55 53 53 53 53 54 54 54 54 51 49 45 41 41 39 38 39 39 40 40 40 38 38 38 35 36 36 35 35 35 37 37 37
57 56 55 55 55 56 55 54 53 52 51 47 40 41 39 37 36 39 39 38 38 36 36 36 31 33 34 32 32 33 33 37 39
58 58 57 57 56 56 56 55 53 52 51 46 45 44 41 37 35 36 37 37 36 34 33 31 27 27 28 33 33 35 36 34 36
61 60 59 58 57 56 57 56 54 51 50 47 48 46 46 38 36 34 36 35 35 33 31 28 26 26 27 33 32 32 32 33 34
62 61 61 60 58 57 58 58 56 52 50 46 47 46 39 40 35 33 33 34 33 33 31 27 26 25 26 30 33 32 31 31 33
62 62 61 61 60 58 57 58 57 53 52 46 43 42 40 37 33 35 30 31 31 31 29 27 26 25 26 28 30 29 29 31 32

GFSFLT1_sfc_30mbdewp_078.txt.gz
Dewpoint
65 65 67 68 67 63 61 61 62 63 63 62 61 60 60 60 64 64 65 65 65 65 65 64 64 64 65 65 64 64 63 64 64
67 66 67 67 66 62 62 61 64 63 63 63 62 61 60 61 60 62 64 64 63 62 62 62 62 63 63 63 62 62 62 62 62
66 66 67 66 64 63 62 63 64 63 63 63 61 60 61 60 60 63 64 64 62 61 60 60 60 60 60 59 59 59 59 59 60
66 67 67 66 65 64 62 63 63 63 63 63 61 60 59 58 60 62 63 63 60 60 59 59 59 58 58 57 56 56 56 56 57
66 66 67 66 65 65 64 63 63 63 63 63 60 58 58 57 60 62 62 60 59 58 58 58 57 57 56 55 54 55 54 54 55
63 64 66 65 65 64 63 63 63 63 62 62 61 59 57 55 60 61 61 59 59 58 56 56 55 54 54 54 53 53 53 53 53
61 64 65 65 64 64 63 64 64 61 60 60 59 58 58 52 60 61 60 59 58 57 55 54 54 54 53 53 53 52 52 52 52
62 62 63 64 63 62 63 65 63 60 58 58 56 56 53 51 59 61 60 58 56 55 53 52 53 52 52 52 51 51 51 51 51
57 60 61 61 61 60 61 62 60 58 56 56 55 52 49 48 59 61 60 58 55 53 51 52 52 51 51 51 50 50 50 50 50
53 56 57 58 60 58 58 59 58 57 55 51 51 49 46 45 53 61 59 57 54 52 51 50 50 50 50 49 48 48 47 47 48
52 53 55 56 56 55 57 57 57 56 53 49 49 46 45 45 56 59 57 56 54 51 50 49 49 48 48 48 46 45 45 45 45
52 52 54 56 56 55 56 56 56 55 55 49 47 45 44 44 47 57 55 55 53 50 48 47 46 46 47 46 45 43 42 43 42
53 52 53 55 55 55 55 56 55 53 52 49 44 43 43 44 46 50 53 51 49 50 48 46 45 45 43 43 42 42 40 39 39
55 53 53 53 54 55 55 56 55 52 49 46 44 41 43 43 43 45 47 50 47 46 48 46 43 41 41 40 40 39 38 39 39
56 53 53 53 53 54 55 55 55 52 50 46 44 41 41 42 42 42 43 43 43 44 44 42 39 39 38 38 38 37 38 37 37
56 55 53 53 53 54 55 55 55 53 51 47 43 42 40 39 39 40 41 41 40 40 39 37 36 37 38 37 36 35 33 36 39
58 56 55 55 55 54 55 54 54 53 53 48 42 40 41 39 37 38 39 39 40 37 38 37 34 34 35 32 33 32 37 36 36
59 58 57 57 56 56 56 56 54 53 52 49 45 46 45 39 39 36 38 38 38 36 34 34 29 31 31 36 35 36 34 33 34
63 61 59 59 59 57 57 57 56 54 51 50 47 49 43 40 36 35 35 37 36 35 33 30 28 26 33 34 34 34 32 32 33
63 63 62 61 60 59 58 58 57 55 53 50 47 47 44 39 37 33 32 34 34 35 31 28 26 26 29 30 35 34 31 31 33

GFSFLT1_sfc_30mbdewp_081.txt.gz
Dewpoint
65 65 67 68 64 62 61 63 63 62 62 61 61 61 63 64 64 65 66 65 65 65 65 65 65 65 64 64 64 64 64 65 65
66 66 68 67 64 62 62 63 63 63 63 62 61 61 61 61 63 64 64 63 62 62 63 63 64 63 62 62 61 61 62 62 63
67 67 68 65 63 63 63 64 64 64 63 62 61 60 61 61 63 64 63 62 60 60 60 60 60 60 59 59 58 59 59 59 59
66 67 67 65 64 64 64 64 64 63 63 61 60 60 60 62 63 63 63 61 60 59 59 59 58 58 57 57 57 57 57 57 57
68 67 67 67 65 64 64 64 64 63 63 61 59 58 58 61 62 62 61 60 59 59 58 57 57 56 55 55 55 55 55 55 55
66 66 67 67 66 65 64 63 64 64 62 61 60 59 58 61 61 61 61 59 59 58 57 56 55 55 54 54 54 54 54 54 54
64 65 66 66 65 64 64 64 64 62 61 60 59 58 57 60 60 61 61 60 59 57 55 55 55 54 54 53 53 53 53 53 52
63 64 65 65 64 63 64 65 63 60 59 58 57 57 56 59 60 61 61 59 57 55 54 54 54 53 53 53 52 52 52 52 51
62 62 63 63 62 62 63 63 62 60 59 58 56 56 51 59 60 61 60 58 56 54 53 53 53 53 52 51 51 51 51 51 50
60 61 61 61 61 61 61 61 60 59 58 57 55 52 47 57 60 60 59 58 55 53 52 52 52 52 51 51 50 49 49 49 48
56 58 59 60 60 60 60 59 59 57 56 52 50 47 46 50 60 59 58 57 55 53 52 51 51 51 51 49 48 47 46 46 46
53 54 56 57 58 58 57 57 57 57 56 50 48 46 45 48 59 58 57 57 55 53 51 50 50 50 50 49 46 45 44 44 44
52 53 54 56 57 55 56 56 56 55 55 51 47 45 44 44 56 57 55 54 53 53 51 49 49 48 48 47 46 43 43 41 40
53 53 53 55 55 55 55 56 56 53 52 50 46 43 43 44 46 55 54 52 51 50 52 51 49 47 46 46 44 44 41 40 39
56 53 53 54 54 54 55 55 56 54 51 48 46 42 43 43 44 45 52 51 49 47 48 49 46 45 44 44 43 42 40 40 38
57 55 53 53 53 54 54 55 55 53 51 47 44 43 42 41 42 42 43 46 47 45 46 44 41 42 44 41 41 41 39 38 38
57 56 54 53 53 53 54 54 54 54 51 47 43 41 41 41 40 40 41 42 42 43 42 40 37 38 39 39 40 38 37 37 40
58 57 56 54 54 53 54 54 54 53 53 49 45 43 42 42 40 39 39 40 41 39 40 39 36 35 36 39 37 36 35 38 36
63 60 57 56 56 55 55 56 55 54 53 52 48 49 47 43 40 36 37 38 39 39 37 37 34 33 33 35 37 39 37 34 34
63 63 62 59 58 58 57 57 56 55 54 53 51 48 46 41 38 37 35 37 37 38 36 34 30 30 34 36 37 37 36 34 33

GFSFLT1_sfc_30mbdewp_084.txt.gz
Dewpoint
65 67 68 65 64 61 63 61 61 62 62 62 63 65 65 65 65 65 65 66 65 65 66 66 65 65 64 64 63 63 64 65 65
65 67 67 65 63 62 63 63 63 63 62 62 62 63 62 64 64 63 62 62 63 63 64 64 64 63 62 61 61 61 61 60 62
66 68 66 64 63 63 63 64 63 63 62 62 61 61 62 64 63 63 62 61 61 61 60 60 60 60 59 59 59 59 59 59 58
66 68 66 65 64 64 64 64 64 63 62 61 60 62 63 63 63 62 61 61 60 59 59 59 58 58 58 57 57 57 57 57 57
68 67 66 65 65 65 65 64 64 63 62 60 60 60 62 62 61 61 62 60 59 59 58 58 57 56 56 56 55 56 55 56 55
68 67 67 66 65 65 64 64 64 63 62 60 60 58 60 61 61 61 62 60 59 58 57 57 56 55 55 55 55 55 55 55 55
66 67 67 67 66 65 64 64 65 63 60 60 60 58 59 60 60 61 61 60 59 57 56 56 56 55 55 54 54 54 54 53 53
65 65 66 65 65 64 64 65 63 61 59 58 58 57 57 60 60 61 61 60 58 56 55 55 55 54 54 53 53 53 53 52 52
62 64 64 64 63 62 63 63 62 60 59 57 57 56 55 59 60 61 61 59 58 55 55 55 54 54 53 52 52 52 52 52 52
62 62 63 63 62 61 61 62 61 59 58 58 57 55 51 59 60 60 60 59 57 55 54 54 53 53 53 52 52 51 51 50 50
61 61 61 61 61 61 60 60 60 58 58 57 56 54 49 58 59 59 59 58 57 55 54 54 53 53 52 51 50 49 49 48 48
59 59 59 60 60 60 60 59 59 58 57 55 51 48 46 55 59 59 58 58 57 55 53 53 53 52 52 50 48 48 47 46 45
55 56 57 58 58 59 58 58 57 57 57 55 49 47 45 49 58 58 57 56 56 55 54 53 52 51 51 51 49 46 45 44 43
54 53 54 56 57 57 57 56 56 55 55 54 50 46 45 44 54 57 56 55 54 53 54 54 52 51 50 50 49 46 45 42 41
54 53 53 55 55 56 55 55 56 55 54 52 49 45 44 44 45 53 56 54 53 51 50 53 51 51 49 48 48 47 45 42 41
57 54 53 53 54 55 55 55 54 54 52 48 46 45 43 42 44 44 49 53 52 50 48 50 48 48 49 47 46 45 44 43 41
58 56 54 53 53 53 54 54 54 54 52 49 44 46 45 43 42 42 43 45 49 48 47 46 44 43 44 45 46 44 43 41 39
58 57 56 54 53 52 53 54 54 53 53 49 50 44 45 43 42 41 40 41 42 44 44 43 41 40 40 42 43 42 39 37 40
61 58 57 56 54 53 53 54 54 54 53 52 50 48 46 44 44 38 39 39 40 41 41 42 41 38 37 40 42 41 40 41 37
63 63 60 57 56 56 55 55 55 54 54 53 52 49 47 42 43 44 40 40 40 41 40 39 39 37 38 41 41 40 40 41 43

GFSFLT1_sfc_30mbdewp_087.txt.gz
Dewpoint
68 67 65 64 62 61 60 62 63 63 63 65 66 66 66 65 65 65 66 65 65 65 65 66 65 64 64 63 63 62 65 65 65
67 67 65 63 62 62 61 62 63 63 63 64 63 65 65 64 63 62 62 63 62 62 63 64 63 63 61 60 60 60 60 60 62
67 67 65 63 63 63 63 63 63 63 62 62 62 64 64 63 62 61 61 62 61 60 60 59 60 60 60 59 59 59 59 59 59
67 67 65 64 64 63 64 63 63 63 62 62 62 64 64 62 62 61 61 61 60 60 59 59 59 58 58 58 58 58 57 57 57
68 67 66 65 65 65 64 64 63 63 62 61 63 64 63 62 61 61 62 60 60 59 58 58 57 57 57 56 56 56 56 56 56
68 66 66 66 66 65 64 64 64 63 62 60 60 61 61 61 61 61 62 60 59 58 58 57 56 56 56 56 56 55 55 55 55
67 66 66 66 66 66 65 64 65 62 60 60 60 58 60 60 60 61 62 60 59 57 57 56 56 55 55 55 55 55 54 54 54
66 66 66 66 65 65 65 64 63 61 59 58 58 57 60 60 60 61 62 60 59 57 56 56 55 55 55 54 54 54 53 53 53
64 64 65 64 64 63 63 63 62 60 58 57 57 57 56 59 60 60 62 61 58 57 56 56 55 55 54 53 53 53 53 53 52
62 63 63 63 63 62 62 62 61 60 58 58 57 56 54 57 60 60 61 61 59 57 56 55 54 54 54 53 53 53 52 52 51
61 62 62 62 62 61 60 60 60 59 58 57 57 57 53 55 59 60 60 60 59 57 55 55 54 54 54 53 52 51 51 50 49
61 61 61 61 61 61 60 60 59 58 57 57 56 53 52 53 58 59 59 59 59 58 55 55 55 54 54 52 50 49 48 47 47
59 60 60 60 60 60 60 59 58 57 57 56 55 51 47 48 57 58 58 58 57 57 57 55 54 54 53 53 51 48 47 46 45
57 57 58 58 58 59 58 57 57 56 56 56 56 51 47 45 52 57 57 57 56 55 55 56 55 55 53 53 53 50 47 46 43
55 55 55 56 56 57 57 56 56 56 55 55 54 51 46 45 45 52 56 56 55 54 53 53 55 54 53 52 52 51 48 45 42
55 54 53 54 55 55 56 55 55 54 53 52 50 48 46 44 44 45 49 55 55 54 52 51 52 51 53 51 50 49 48 47 44
58 55 54 53 53 54 55 55 54 54 52 51 46 49 49 45 44 43 44 46 52 52 51 50 49 48 48 49 50 48 46 45 43
58 57 56 54 53 53 53 54 54 53 53 50 51 47 48 45 44 42 42 42 43 47 49 48 47 47 45 46 46 45 46 47 49
59 58 57 56 54 53 53 53 54 54 52 52 50 49 46 46 47 41 40 40 40 41 43 45 45 44 42 43 46 47 47 46 47
63 61 59 57 56 55 54 54 54 54 53 53 52 51 48 45 47 49 48 41 41 41 41 41 42 41 41 43 45 46 46 46 48

GFSFLT1_sfc_30mbdewp_090.txt.gz
Dewpoint
68 65 63 62 61 61 63 64 64 64 65 66 67 65 65 65 65 65 66 65 66 66 66 65 64 63 62 62 62 62 64 65 65
68 65 63 63 61 62 64 64 64 64 65 65 67 66 64 62 62 62 62 62 61 60 60 60 60 60 60 60 60 60 60 59 59
68 65 64 63 62 62 63 64 64 63 64 64 66 65 63 62 61 61 62 62 60 60 60 60 59 59 59 59 59 59 59 59 59
68 65 64 63 63 63 63 63 63 63 63 63 65 64 63 61 61 60 61 61 60 60 60 59 59 59 58 58 58 57 57 57 57
68 66 66 65 65 65 64 63 63 63 62 63 65 64 62 61 60 60 61 60 60 59 59 58 57 57 57 57 56 56 56 56 56
67 66 66 66 66 65 65 64 64 63 61 62 63 62 61 61 60 61 62 60 59 59 58 57 56 57 56 56 56 56 56 55 55
66 66 66 67 66 65 64 65 64 61 60 60 59 59 60 60 60 61 62 60 59 58 57 57 56 56 56 55 55 55 55 54 54
66 65 66 65 65 65 65 64 63 60 59 58 58 57 59 60 60 60 62 61 59 57 57 56 56 55 55 54 54 54 54 54 54
65 65 65 64 64 63 63 62 61 59 58 57 56 56 58 59 59 60 62 61 59 57 56 56 55 55 54 53 54 53 53 53 53
64 64 64 64 63 62 62 61 61 59 58 57 57 56 56 55 59 59 61 62 60 58 57 56 55 55 54 53 53 53 52 52 52
62 62 63 62 62 61 60 60 60 59 58 57 57 57 56 53 57 59 59 61 61 58 57 56 55 55 54 53 52 52 51 50 49
61 61 61 62 61 61 60 60 59 59 57 56 56 56 54 53 54 58 59 59 60 59 57 56 56 55 55 54 52 50 49 48 47
60 60 60 61 61 61 60 59 58 57 57 56 55 55 51 49 52 57 58 58 58 58 59 57 56 56 55 54 53 50 48 47 45
59 59 59 60 60 60 59 58 58 56 56 56 56 56 53 48 47 54 57 57 57 57 56 57 57 56 55 54 54 53 49 47 44
58 58 58 58 58 58 57 57 56 56 56 55 55 54 52 48 46 47 54 56 56 56 55 54 55 56 56 54 53 53 52 47 44
57 57 56 56 56 56 56 56 56 55 54 53 52 52 50 49 46 46 46 52 55 55 54 53 52 53 55 55 52 52 51 50 47
58 57 56 54 54 55 55 55 54 54 53 53 49 51 51 48 46 45 44 45 50 53 53 53 52 51 50 52 53 52 49 49 48
59 57 56 54 54 53 54 54 54 53 53 51 52 48 49 47 46 43 43 43 44 46 50 51 51 50 49 49 50 48 48 51 51
59 58 57 56 54 53 54 54 54 54 53 52 51 50 48 48 48 44 41 41 41 42 43 46 47 48 47 46 48 49 50 51 52
61 59 59 58 57 56 55 54 54 54 53 53 53 52 49 47 49 50 51 43 41 41 41 41 43 44 44 45 48 49 50 50 49

GFSFLT1_sfc_30mbdewp_093.txt.gz
Dewpoint
65 62 62 62 63 63 64 65 65 66 66 66 65 66 66 65 65 64 63 65 65 64 63 62 62 61 61 61 62 62 62 62 62
66 63 63 62 63 64 65 64 66 66 66 66 66 65 64 63 62 62 62 60 60 61 61 60 60 60 59 60 60 60 60 60 59
66 64 63 62 63 64 64 64 65 65 66 67 66 64 62 61 61 62 61 62 60 61 60 60 59 59 59 59 59 58 58 58 58
66 65 64 63 63 64 64 64 64 64 64 66 65 64 62 60 60 60 60 61 60 60 59 59 59 58 58 58 57 57 57 57 57
67 66 65 65 65 65 65 64 64 63 63 66 65 63 62 60 60 60 60 61 59 59 58 58 58 57 57 57 57 57 56 56 56
66 65 66 66 66 65 64 64 64 62 63 65 64 62 61 60 60 60 61 60 59 58 58 57 57 57 57 56 56 56 56 56 55
66 66 66 66 66 65 65 65 63 60 60 60 60 61 61 60 60 60 62 60 59 58 57 57 57 56 56 56 55 55 55 55 55
66 66 66 66 65 64 64 64 62 60 59 59 58 57 60 60 60 60 62 61 59 58 57 57 56 56 55 55 54 55 54 54 54
65 65 65 65 64 64 64 63 61 59 58 58 57 57 59 60 60 60 61 62 59 58 57 56 55 55 54 55 54 54 54 53 53
65 65 65 65 64 63 63 62 61 59 58 57 57 57 57 57 59 60 60 62 61 58 57 57 55 55 54 54 54 53 53 52 52
64 64 64 64 64 63 62 61 60 59 58 56 57 57 57 56 55 58 59 61 62 60 57 57 56 55 55 54 53 53 51 50 50
63 63 63 63 63 62 61 61 60 59 58 56 56 57 57 56 55 56 59 59 60 61 58 57 57 56 55 54 53 51 50 49 47
62 62 62 62 62 62 61 60 60 59 58 57 55 56 56 54 52 54 57 59 58 59 60 59 57 57 56 55 54 52 49 48 46
60 60 60 61 61 61 61 60 59 58 57 57 56 56 57 55 51 51 55 57 58 58 58 58 58 58 56 56 55 54 51 49 46
59 59 59 60 60 60 59 59 58 58 56 56 56 56 56 55 53 50 50 54 57 57 57 56 56 57 57 55 55 54 54 50 47
59 59 58 59 59 58 58 58 57 56 56 55 55 54 54 54 53 51 49 50 53 55 56 56 55 54 56 57 55 54 53 53 48
60 59 58 58 58 57 57 56 55 56 55 55 52 52 52 52 50 50 48 48 48 51 54 55 55 54 54 54 56 56 52 52 52
61 60 59 58 57 56 56 56 55 54 55 54 54 50 50 50 49 46 47 46 46 47 49 52 53 53 52 51 52 53 54 51 50
61 60 59 58 57 56 55 56 55 55 54 54 53 52 51 49 49 49 44 43 43 44 44 45 47 49 50 50 49 49 50 50 54
60 60 60 59 58 57 57 56 56 56 54 54 54 53 51 50 50 50 52 47 44 42 42 42 43 45 46 47 48 50 51 51 53

GFSFLT1_sfc_30mbdewp_096.txt.gz
Dewpoint
62 62 63 63 64 64 63 66 67 67 66 65 67 67 66 63 60 60 60 61 63 62 62 62 61 61 61 62 62 62 62 61 60
63 62 63 64 65 63 65 67 66 66 66 67 66 65 63 60 59 57 57 61 61 61 60 60 59 60 60 60 60 59 59 59 59
63 62 63 64 65 65 65 65 66 67 67 66 65 63 61 59 57 57 58 61 60 60 59 59 59 59 58 58 58 58 58 58 57
64 63 63 64 65 65 65 65 65 66 67 65 64 62 60 56 56 55 57 61 60 59 59 58 58 58 58 57 57 57 57 56 56
66 65 64 65 66 65 65 64 64 64 66 65 64 61 60 56 56 56 59 60 59 58 58 58 57 57 57 57 57 56 56 56 56
64 64 66 66 66 65 64 65 63 65 66 65 63 61 58 57 56 56 61 60 59 58 58 57 57 57 57 56 56 56 56 56 55
64 65 66 66 66 66 65 64 61 60 60 61 61 58 58 57 57 57 61 60 59 58 58 57 57 56 56 56 56 55 55 55 55
65 65 64 63 63 60 62 61 58 58 57 57 57 57 58 58 57 60 62 60 59 58 57 57 56 56 56 55 55 55 55 54 54
62 63 63 62 61 59 58 57 57 57 57 56 56 56 57 58 57 59 61 62 59 58 58 56 56 55 55 55 55 54 54 54 54
60 61 63 62 61 60 59 58 55 55 54 55 55 56 56 57 57 57 59 62 61 59 58 57 56 56 55 55 54 54 53 53 52
61 60 61 62 62 61 60 58 57 54 51 52 54 54 55 55 55 55 57 60 62 60 58 58 57 56 55 54 54 53 52 51 50
60 59 60 60 61 60 60 59 58 56 54 51 51 54 54 56 55 55 56 57 60 61 59 58 58 57 56 55 54 52 51 50 48
60 59 59 60 60 60 59 58 57 56 55 53 51 51 55 55 55 55 55 56 56 59 61 59 58 58 57 56 55 53 51 49 47
60 59 58 59 59 59 59 58 57 55 55 54 53 51 53 54 55 55 55 55 56 56 59 59 59 59 58 57 56 56 53 50 48
60 59 58 58 59 60 60 58 58 56 55 54 54 55 56 56 56 55 55 54 56 56 56 56 56 57 58 57 57 56 56 52 50
60 60 59 59 59 58 59 58 57 56 57 55 54 55 55 55 55 55 55 53 54 54 54 55 54 54 56 58 57 56 56 55 52
61 61 60 60 59 59 59 58 56 55 56 54 54 51 52 53 53 54 53 53 53 52 53 53 53 54 54 54 58 58 56 55 55
63 62 61 61 60 59 59 58 57 55 56 56 53 52 51 52 52 51 51 51 51 50 50 51 52 53 54 54 53 54 56 55 55
64 63 62 62 61 60 59 58 57 57 55 55 55 55 53 52 51 51 48 46 46 48 47 46 47 49 51 52 52 52 53 54 53
63 63 63 62 61 60 60 59 58 57 56 56 56 55 55 53 52 51 53 50 47 45 44 44 44 45 46 48 49 50 51 52 52

GFSFLT1_sfc_30mbdewp_099.txt.gz
Dewpoint
62 62 64 64 64 65 65 65 66 65 65 66 65 66 66 63 57 58 60 62 61 61 61 61 61 61 61 61 61 61 60 60 59
63 63 64 65 62 65 67 67 67 67 67 67 66 63 61 56 55 57 59 60 60 60 60 60 60 59 59 59 59 59 59 58 58
63 63 65 64 64 66 66 66 67 67 66 65 64 62 60 54 56 57 59 61 60 60 59 59 59 58 58 58 58 58 57 57 57
63 64 65 64 65 66 65 66 67 67 66 64 62 59 58 54 54 55 57 60 59 59 58 58 58 58 58 58 57 57 57 57 56
65 65 65 66 66 65 65 64 66 67 65 64 61 59 58 55 55 57 59 60 59 58 58 58 58 58 58 57 57 57 56 56 56
62 62 66 66 66 65 65 64 65 67 65 63 61 60 56 55 56 58 61 59 58 58 58 58 57 57 57 57 56 56 56 56 56
63 64 66 66 66 66 65 63 63 63 61 61 60 58 56 56 56 59 61 60 59 58 57 57 57 57 56 56 56 56 56 55 55
64 63 62 62 64 61 63 61 59 57 57 58 56 56 56 56 56 60 61 60 59 58 57 57 56 56 56 56 56 56 55 55 55
62 61 60 59 58 57 58 56 56 57 56 55 55 54 55 56 56 59 62 61 59 59 58 57 56 55 56 55 55 55 55 54 54
61 60 59 59 58 57 56 54 54 54 53 53 54 54 55 56 56 58 60 62 60 59 59 57 57 56 55 55 55 54 54 53 53
57 59 61 59 59 58 58 56 55 51 51 51 52 53 54 54 55 55 59 60 62 60 59 59 57 57 56 55 55 53 53 52 51
59 57 59 59 59 58 58 57 56 54 52 49 49 51 52 54 54 55 55 59 60 62 59 59 58 58 57 56 55 54 52 50 49
59 57 58 58 58 58 58 57 56 55 54 53 49 49 52 53 54 54 55 56 57 60 62 61 59 59 58 57 56 54 53 51 49
58 57 56 57 57 57 57 56 55 54 55 54 52 51 51 54 53 54 54 55 56 57 59 60 60 60 59 58 58 57 54 52 50
59 57 56 56 57 58 58 56 57 55 54 53 51 54 54 54 56 56 55 55 56 57 57 58 58 58 59 59 58 58 58 54 52
60 60 58 57 57 58 58 57 56 56 56 55 54 55 55 56 56 56 55 54 55 56 56 56 56 57 57 59 59 58 57 58 54
61 61 60 58 58 58 58 58 57 56 57 55 54 52 53 55 55 55 54 54 54 54 55 54 55 55 56 57 58 59 58 57 58
63 62 61 61 60 60 60 59 58 56 56 57 55 53 52 53 54 54 54 53 54 53 52 52 52 53 55 55 55 56 57 58 56
65 64 63 62 62 61 61 60 59 58 57 57 56 56 56 53 52 52 51 50 49 50 50 48 48 49 51 52 52 53 53 55 56
65 65 63 63 63 62 61 61 60 59 58 57 57 56 56 56 54 53 52 49 48 47 46 45 45 46 47 48 49 50 52 53 54

GFSFLT1_sfc_30mbdewp_102.txt.gz
Dewpoint
64 65 64 65 65 65 65 64 63 64 66 66 66 64 63 59 59 60 62 61 61 61 61 61 61 60 60 60 60 60 59 59 58
64 63 64 65 66 67 66 66 66 67 67 66 64 62 58 57 59 60 60 60 60 60 60 59 59 59 59 59 59 58 58 58 58
63 64 61 64 67 66 66 67 67 67 66 64 62 59 58 58 59 60 61 61 59 59 59 59 59 59 59 58 58 58 57 57 57
64 65 63 66 66 66 68 67 67 66 65 62 59 58 56 57 58 59 60 60 59 59 58 58 59 58 58 58 57 57 57 57 57
66 65 63 66 66 66 67 67 67 65 64 60 59 59 58 57 59 60 61 59 58 58 58 58 58 58 58 58 57 57 57 57 56
64 65 65 66 66 66 65 66 67 65 63 60 60 61 58 58 59 61 61 59 58 58 58 58 58 58 57 57 57 57 56 56 56
64 65 65 66 66 66 64 64 66 63 61 60 60 60 57 58 59 61 61 60 59 58 58 58 57 57 57 57 57 56 56 56 56
64 65 65 65 65 65 63 61 62 62 60 59 59 58 57 57 59 61 61 60 59 58 58 57 57 57 56 56 56 56 56 55 55
63 62 62 62 62 62 61 60 59 58 57 57 55 55 56 58 59 62 61 60 60 59 58 58 56 56 56 56 56 55 55 55 55
63 62 61 59 58 59 59 58 56 56 55 54 54 55 55 56 58 60 61 61 60 59 59 58 57 56 56 56 55 55 54 54 54
62 61 60 60 58 58 57 56 54 53 53 52 53 54 54 55 56 58 60 61 61 60 60 59 58 57 56 56 55 54 53 52 52
59 61 60 60 59 59 58 57 56 54 52 50 50 52 53 54 55 56 58 60 61 61 60 60 59 58 57 56 55 54 53 51 50
59 59 61 61 60 59 58 58 57 56 55 53 51 49 52 54 54 55 57 59 59 61 62 61 60 59 58 57 57 56 54 52 50
59 59 59 59 59 58 58 58 57 56 55 55 53 52 50 52 54 54 55 56 58 59 60 61 61 61 60 59 59 58 56 54 52
58 58 57 57 58 58 58 57 57 56 55 54 52 52 53 52 54 54 55 56 56 57 59 59 60 60 61 60 59 59 58 56 54
58 59 56 57 58 58 59 58 57 57 56 55 54 53 55 56 56 57 56 56 56 57 57 58 58 58 58 60 60 59 58 59 56
61 61 60 57 58 58 59 58 57 57 57 55 54 53 54 55 56 56 56 55 55 55 56 56 57 56 57 58 59 60 59 59 59
62 61 61 60 59 59 59 59 58 56 57 56 55 53 51 54 55 55 55 54 55 55 54 53 53 53 54 55 57 57 58 58 58
65 63 62 62 61 60 61 61 59 58 57 57 56 57 56 53 52 53 53 52 51 52 49 48 47 47 49 51 53 54 55 55 56
64 64 64 63 63 63 62 62 60 59 58 58 57 57 57 57 55 52 51 49 48 47 45 45 45 45 46 47 48 49 51 53 55

GFSFLT1_sfc_30mbdewp_105.txt.gz
Dewpoint
63 63 64 65 64 63 62 62 65 67 67 65 64 63 62 61 60 61 62 61 61 61 61 61 60 60 60 59 59 59 58 58 58
61 64 66 66 66 64 63 65 67 67 66 63 62 62 61 60 60 60 60 60 60 60 60 60 60 59 59 59 59 58 58 58 57
62 65 67 68 67 67 66 67 67 66 64 61 61 61 60 60 60 60 61 60 60 60 60 59 59 59 59 58 58 58 58 58 58
61 64 67 67 67 68 67 67 66 65 62 60 61 60 59 59 59 59 60 60 59 59 59 59 59 59 59 58 58 58 58 57 57
62 63 67 67 68 68 68 67 66 63 61 60 59 60 59 59 60 60 60 59 59 59 59 59 59 58 58 58 58 58 57 57 57
64 62 66 67 66 67 67 66 65 62 60 59 60 60 58 59 60 61 60 59 59 59 59 58 58 58 58 58 57 57 57 57 56
64 63 66 67 66 65 67 67 63 60 59 58 60 59 58 59 60 61 61 60 59 59 58 58 58 58 57 57 57 57 56 56 56
65 65 65 65 65 64 63 65 64 61 59 58 58 59 58 59 60 61 61 60 59 59 58 58 58 57 57 57 56 56 56 56 56
64 63 64 64 64 62 60 59 61 61 61 59 58 56 57 58 60 61 61 60 60 59 59 57 57 57 57 56 56 56 55 55 55
61 62 62 62 62 61 60 58 58 58 57 56 55 55 57 58 59 61 61 61 60 60 59 58 57 57 57 56 55 55 55 54 54
62 61 61 60 59 60 59 59 57 55 54 53 54 54 55 57 58 59 61 61 61 60 60 59 58 58 57 56 55 54 54 53 52
62 62 61 60 58 59 58 57 55 53 51 50 52 53 54 54 57 58 59 61 61 61 60 60 59 58 58 57 56 54 53 52 50
61 62 61 61 59 59 58 57 56 55 53 51 51 50 52 53 54 57 58 59 60 61 62 61 60 60 59 58 57 56 55 53 51
59 59 60 60 60 59 58 58 57 56 55 55 54 52 50 52 54 54 56 58 59 59 61 61 61 61 60 59 59 58 57 55 53
59 59 59 59 59 58 58 57 57 56 55 55 53 52 53 51 52 54 54 56 58 59 58 60 61 61 62 60 60 59 59 58 55
59 58 57 58 58 58 57 57 56 56 56 55 54 53 53 54 53 54 56 56 56 57 58 59 59 59 60 61 61 59 59 60 59
58 59 57 57 57 58 58 58 57 57 57 54 54 52 53 55 56 56 56 56 56 56 57 58 58 57 57 58 60 61 60 59 59
63 61 60 57 58 58 59 59 57 56 57 56 54 52 50 54 55 55 56 56 55 55 55 54 54 54 54 56 57 58 58 59 59
65 63 63 62 59 58 59 59 59 57 56 57 56 56 56 53 52 54 53 53 53 52 49 47 47 48 49 50 52 53 54 56 57
64 65 65 64 64 62 61 61 60 59 58 57 56 56 56 56 54 52 52 49 47 46 46 45 45 45 46 46 46 48 50 52 54

GFSFLT1_sfc_30mbdewp_108.txt.gz
Dewpoint
65 64 65 66 65 66 63 67 68 66 66 66 64 63 62 61 61 61 62 61 61 61 61 60 60 60 59 59 59 59 58 58 58
64 63 64 64 64 63 66 67 66 65 65 64 63 62 61 60 60 60 60 60 60 60 60 60 60 59 59 59 59 58 58 58 58
64 65 66 65 63 64 67 67 66 64 64 63 62 61 60 60 60 60 61 61 60 60 60 60 59 59 59 59 58 58 58 58 58
65 68 68 68 67 67 68 67 65 63 63 63 62 60 60 59 59 60 60 61 60 60 60 59 59 59 59 58 58 58 58 58 57
67 68 68 68 69 68 68 66 64 62 62 62 61 61 60 59 60 60 61 59 59 59 59 59 59 58 58 58 58 58 57 57 57
64 67 68 68 68 68 67 65 62 60 60 62 60 59 59 60 60 60 60 59 60 59 59 58 58 58 58 58 58 57 57 57 57
62 66 67 67 68 68 66 64 61 59 58 60 60 58 59 59 60 61 61 59 59 59 59 59 58 58 58 57 57 57 56 56 56
62 65 65 65 65 66 66 64 61 58 58 58 59 58 58 59 60 61 61 60 60 59 59 58 58 58 58 57 57 57 56 56 56
63 64 64 64 63 61 62 62 61 61 60 59 57 57 58 59 60 61 61 61 60 60 59 58 58 58 57 57 57 56 56 56 55
63 63 63 63 62 60 59 59 60 60 59 59 56 57 58 58 60 61 61 61 61 60 59 58 58 58 57 57 56 56 55 55 54
62 62 62 61 61 61 60 58 58 57 56 54 55 56 57 58 59 60 61 61 61 61 60 60 59 58 58 57 56 55 54 54 53
60 60 60 59 59 60 59 59 57 55 52 52 53 54 55 57 58 59 60 61 61 61 61 60 60 59 58 58 56 55 54 52 51
61 61 60 60 58 59 59 57 55 54 52 51 50 52 53 54 56 58 58 60 61 61 62 62 61 60 59 58 58 56 55 53 51
62 61 61 61 59 58 58 57 56 55 55 53 53 53 50 52 54 55 57 58 59 60 61 62 62 61 60 59 59 59 58 56 54
61 61 61 60 59 59 58 57 57 56 56 55 54 53 52 51 52 53 54 57 58 58 59 60 61 62 62 61 60 60 60 58 56
59 59 59 59 59 58 58 57 56 56 56 54 54 54 53 53 53 52 54 55 56 58 58 58 59 60 61 62 61 60 60 60 60
59 58 58 58 58 58 57 57 56 56 56 54 54 51 52 55 54 55 54 55 56 56 57 58 58 58 58 58 60 61 60 60 59
60 59 57 57 58 58 58 58 57 56 57 56 53 51 49 53 55 55 56 56 56 56 56 57 57 57 56 56 57 57 59 59 59
63 62 61 59 58 58 58 59 58 57 56 56 56 56 55 53 51 54 53 54 54 54 52 52 50 50 50 51 51 52 53 55 57
65 64 63 63 62 61 60 61 59 59 57 56 56 56 56 55 54 52 52 49 48 48 47 46 46 47 47 46 46 48 50 51 53

GFSFLT1_sfc_30mbdewp_114.txt.gz
Dewpoint
69 69 69 67 68 68 68 68 68 68 66 65 64 63 63 61 61 61 62 61 61 61 60 60 60 60 59 60 59 59 59 59 59
68 68 68 67 69 67 67 67 67 66 65 64 63 63 61 60 60 60 60 61 60 60 60 60 60 59 59 59 59 59 59 59 58
66 67 67 67 68 66 66 67 66 65 64 62 62 62 61 60 60 61 61 61 60 60 60 60 59 59 59 59 59 59 58 59 58
66 66 66 68 68 66 67 67 65 64 62 61 62 62 60 59 60 60 61 61 60 60 60 59 59 59 59 59 59 58 58 58 58
66 66 66 68 68 66 66 66 65 63 61 62 62 61 60 59 60 61 62 60 60 60 60 59 59 59 59 59 58 58 58 58 58
66 66 66 69 68 66 66 66 65 64 62 62 61 59 59 59 60 61 61 60 60 60 60 59 59 59 59 58 58 58 58 58 57
67 67 68 69 68 66 65 64 63 61 61 60 58 58 58 59 60 61 61 60 60 59 59 59 59 59 58 58 58 58 57 57 57
67 67 68 67 67 66 63 60 59 59 59 59 57 57 58 59 60 61 61 60 60 60 59 59 59 58 58 58 57 57 57 57 56
65 65 65 65 65 63 60 59 58 58 58 58 57 57 58 59 60 61 61 61 60 60 59 59 59 58 58 58 57 57 56 56 56
64 64 64 64 63 61 60 59 59 59 59 58 58 57 57 58 59 60 61 62 61 60 60 59 59 58 58 57 57 56 56 55 55
62 63 62 62 62 60 59 58 58 59 58 57 57 57 57 57 59 59 60 62 62 61 60 60 60 59 58 58 57 56 56 55 54
62 61 61 60 60 59 58 58 58 57 55 54 55 56 57 57 58 59 59 60 62 62 61 61 60 60 59 58 57 56 55 54 53
61 61 61 60 60 59 58 58 57 56 55 52 52 54 55 57 57 58 58 59 60 61 63 62 61 60 60 59 58 57 56 54 53
61 60 60 60 59 59 58 57 57 56 54 53 52 51 52 53 55 57 57 58 59 60 60 62 63 62 61 60 61 60 58 57 55
60 59 59 59 58 58 58 57 57 55 54 54 54 54 54 52 51 53 55 57 58 59 59 59 61 62 62 62 61 61 61 60 58
60 60 58 59 57 56 58 58 57 56 56 55 55 55 55 54 53 51 53 55 56 57 58 58 59 60 62 63 62 62 61 61 60
61 61 60 60 59 58 58 57 56 56 56 55 53 52 51 53 54 53 52 52 54 55 57 57 58 58 59 60 61 62 62 62 61
61 61 61 60 60 59 59 58 57 56 56 55 54 51 48 50 54 55 54 54 54 55 56 56 57 58 58 58 58 58 57 58 59
61 60 60 60 60 59 59 58 57 57 56 56 56 55 53 52 51 54 53 53 55 55 56 55 56 57 57 57 55 53 53 55 57
62 61 59 60 60 59 59 59 58 58 57 56 57 56 55 55 54 51 53 51 50 51 52 52 52 51 52 52 51 49 50 52 54

GFSFLT1_sfc_30mbdewp_117.txt.gz
Dewpoint
69 69 68 68 69 69 68 68 68 67 66 64 64 64 63 62 61 60 61 60 61 61 60 60 60 60 60 60 60 59 59 59 59
70 68 68 69 69 69 68 68 67 66 65 63 63 63 61 60 61 61 61 60 61 60 60 60 60 60 60 60 59 59 59 58 58
69 68 69 69 68 68 68 68 67 65 63 62 63 62 61 60 61 61 60 61 60 60 60 60 60 60 60 59 59 59 59 59 59
68 68 69 68 68 68 68 66 65 64 62 62 62 62 61 60 60 60 60 61 60 60 60 60 60 60 59 59 59 59 59 59 58
67 67 69 68 68 69 68 66 64 62 62 62 62 61 60 60 60 61 60 61 60 60 60 60 59 59 59 59 59 58 58 58 57
65 65 68 67 67 68 67 66 63 63 63 62 61 59 59 59 60 60 62 61 60 60 60 60 59 59 59 58 58 58 58 58 57
64 66 68 67 67 67 67 65 63 60 57 58 58 57 59 59 60 60 61 61 60 60 60 60 59 59 58 58 58 58 57 57 57
64 67 68 66 64 64 63 61 59 59 58 56 56 57 58 58 60 61 61 60 60 59 60 59 59 59 58 58 58 57 57 57 56
64 65 66 65 63 62 60 59 59 59 59 57 56 56 57 58 60 61 62 61 60 60 59 59 59 58 58 58 57 57 57 56 56
62 63 65 65 63 60 59 58 58 58 58 58 58 57 57 58 59 60 61 62 61 60 60 60 59 59 58 58 57 57 56 56 55
63 63 65 64 62 59 58 58 59 59 59 58 57 58 58 58 59 59 60 62 62 61 61 60 60 59 59 58 57 57 56 55 55
64 64 64 63 62 59 58 58 59 58 57 57 57 57 58 58 58 59 59 60 62 62 61 61 61 60 59 58 58 57 56 55 54
63 63 62 62 60 59 58 58 58 57 56 54 54 56 57 57 58 58 59 59 60 61 62 62 61 61 60 60 58 58 57 55 54
62 62 61 60 59 58 58 58 57 57 56 55 53 53 54 55 56 58 58 59 59 60 60 62 63 62 61 60 61 60 59 58 56
61 61 60 60 59 58 58 58 57 57 56 54 53 54 53 53 53 54 56 57 58 59 60 60 60 62 63 62 61 62 62 60 59
61 60 60 60 58 58 58 58 57 57 56 55 56 56 56 55 55 53 53 54 57 58 58 59 59 59 61 63 63 62 62 61 62
60 59 59 59 58 57 58 58 57 57 57 56 55 54 53 53 55 55 53 53 55 56 57 58 58 59 59 60 62 63 63 62 61
61 60 59 58 58 57 57 58 58 57 57 56 56 53 50 51 54 55 55 54 53 54 55 56 57 58 58 59 59 59 58 59 59
62 61 61 60 60 60 59 59 59 58 57 57 56 56 54 53 51 54 54 54 55 55 55 56 56 57 58 59 57 55 55 56 57
62 61 61 61 61 61 61 60 59 59 58 57 57 57 56 56 54 53 53 53 51 54 55 54 54 54 55 55 53 51 50 52 54

GFSFLT1_sfc_30mbdewp_120.txt.gz
Dewpoint
69 68 69 70 69 69 69 68 67 67 66 64 64 64 62 58 57 58 59 59 61 61 61 61 61 61 60 60 60 59 60 59 59
69 69 70 70 69 69 68 68 67 66 64 63 63 62 60 55 57 57 58 60 61 61 61 61 60 61 60 60 60 59 59 60 60
69 69 69 69 69 69 68 67 66 65 63 63 63 62 59 56 57 58 59 61 61 61 61 61 60 60 60 60 59 59 59 59 58
69 69 69 69 69 69 68 66 65 63 62 63 63 62 60 56 57 56 58 62 61 61 61 60 60 60 60 60 59 59 58 59 58
69 69 69 69 68 68 67 65 63 62 63 63 62 61 59 56 57 56 60 61 61 60 60 60 60 60 59 59 59 59 58 58 58
67 65 68 69 69 68 67 64 63 63 63 62 61 59 53 54 56 57 62 61 60 60 60 60 60 59 59 59 59 58 58 58 58
61 66 67 68 68 67 65 63 62 56 53 56 57 52 53 55 56 58 62 60 60 60 60 60 59 59 59 59 58 58 58 58 57
62 66 64 65 66 63 62 59 56 53 51 51 52 52 53 54 56 60 61 60 60 60 60 59 59 59 58 58 58 58 57 57 57
58 64 61 61 60 60 58 56 57 56 54 52 52 52 53 54 56 59 62 61 61 60 60 59 59 59 58 58 58 57 57 57 56
57 65 61 59 59 58 56 56 57 56 56 56 55 55 55 55 56 57 61 62 61 60 60 60 59 59 58 58 57 57 56 56 55
59 64 63 59 57 56 56 56 56 57 56 56 57 56 56 56 57 57 59 62 62 61 61 60 60 59 59 58 57 57 56 55 55
62 64 63 59 57 56 55 56 57 57 57 57 56 57 56 57 57 57 57 59 61 62 61 61 61 60 59 59 58 57 57 56 55
60 63 62 60 59 57 56 56 56 56 56 55 55 56 56 56 56 57 57 58 58 60 62 63 62 61 60 60 59 59 57 57 56
58 59 60 60 59 57 55 55 55 56 56 56 55 55 56 56 56 56 56 57 58 58 60 62 63 63 61 61 61 60 59 58 58
59 59 59 60 59 57 55 54 55 54 55 54 53 54 54 53 53 54 55 56 58 58 58 59 59 62 63 62 61 62 62 61 60
61 61 61 59 58 57 55 55 55 56 56 54 55 56 56 56 55 54 53 53 55 56 57 58 58 58 61 63 63 63 62 62 62
60 59 60 59 57 56 55 57 56 55 57 56 56 53 53 55 55 56 55 54 54 54 55 56 57 57 57 59 62 63 63 63 62
59 59 58 58 57 56 57 56 56 56 58 58 55 53 50 50 53 55 55 55 54 54 54 55 55 56 57 58 59 59 60 60 60
60 59 57 57 57 56 56 57 58 59 58 58 58 58 56 54 52 54 55 55 55 55 55 55 55 57 58 59 58 56 56 57 58
60 61 60 60 58 58 58 59 60 60 59 59 59 58 58 58 56 54 54 55 53 55 55 56 56 56 56 55 54 52 51 53 55

GFSFLT1_sfc_30mbdewp_123.txt.gz
Dewpoint
69 69 69 69 69 69 69 68 66 66 66 65 64 62 60 58 57 58 59 60 61 61 61 61 61 61 60 59 59 60 61 59 59
69 69 70 70 69 69 68 67 66 65 64 64 63 62 59 55 56 58 59 61 61 61 61 61 61 60 60 60 59 60 60 59 59
70 70 70 70 69 68 67 66 65 64 63 63 62 60 59 55 57 59 60 62 61 61 60 60 60 60 60 59 59 59 58 59 59
69 69 70 69 69 68 67 66 64 63 63 63 62 60 59 55 56 58 60 61 61 61 61 61 60 60 60 60 59 59 59 58 58
68 69 70 69 68 68 67 65 63 63 63 63 61 58 57 55 56 58 61 61 61 61 60 60 60 60 60 60 59 59 58 58 58
67 65 69 69 68 67 66 64 63 64 63 62 60 59 53 54 55 59 62 61 60 60 60 60 60 60 59 59 59 59 58 58 58
63 67 68 68 68 66 64 64 63 57 55 57 58 54 53 54 56 60 62 60 60 60 60 60 59 59 59 59 58 58 58 58 58
66 66 67 67 65 63 60 59 54 49 49 51 51 51 53 54 56 61 61 60 60 60 60 60 59 59 59 58 58 58 57 57 57
62 63 62 64 62 60 55 54 52 50 50 50 50 51 52 53 56 61 62 61 60 60 60 59 59 59 58 58 58 57 57 57 56
60 59 61 61 59 57 54 54 55 52 51 50 51 52 52 53 55 58 61 62 61 61 60 60 59 59 59 58 57 57 56 56 56
59 59 58 57 57 56 54 54 55 54 53 53 53 54 54 54 55 57 60 62 62 61 61 60 60 60 59 59 58 57 56 56 55
63 61 58 57 56 54 54 54 55 54 54 54 54 54 54 55 55 56 58 60 62 62 62 61 61 60 60 60 59 58 57 56 55
63 63 59 57 56 54 54 55 55 55 55 55 54 55 55 55 55 56 56 58 58 61 63 63 62 61 60 60 60 59 58 57 57
62 63 61 57 56 55 54 55 55 55 55 54 54 54 55 55 55 55 55 56 57 58 59 62 63 63 62 60 61 61 60 59 59
61 63 61 58 57 56 55 54 55 55 54 53 53 54 54 54 55 54 54 55 57 58 58 60 60 62 63 63 62 62 62 61 61
57 59 58 58 58 57 55 54 54 54 55 54 54 54 54 55 55 55 54 54 55 56 56 57 58 59 61 63 63 63 62 62 63
56 58 58 57 58 57 55 54 55 55 57 54 56 54 55 56 56 56 55 55 54 54 55 55 56 57 59 60 61 62 62 63 62
59 60 59 58 58 57 56 56 56 55 57 58 57 54 52 52 53 54 54 55 55 55 55 55 55 56 56 57 59 60 60 61 61
60 60 59 59 58 57 57 57 57 57 58 58 58 58 57 53 53 55 55 56 55 56 56 55 55 56 57 58 56 56 56 57 58
60 60 59 58 58 57 57 57 58 59 60 59 59 58 57 57 56 54 55 56 55 55 56 56 57 57 57 56 55 54 52 54 56